GEFSCGP_prec_meanprecacc_138.txt.gz
Total_Precipitation_Accumulation
1.46 1.67 1.35 0.78 0.62 0.53 0.43 0.35 0.31 0.33 0.33 0.36 0.35 0.39 0.41 0.38 0.38 0.42 0.51 0.59 0.65 0.63 0.67 0.86 1.08 1.35 1.60 1.95 2.15 2.12 2.05 2.18 2.40 2.23 1.98 1.78 1.56 1.37 1.17 0.97 0.84 0.74 0.65 0.58
1.47 1.25 0.74 0.53 0.58 0.61 0.56 0.49 0.39 0.38 0.36 0.40 0.37 0.39 0.39 0.39 0.36 0.39 0.47 0.54 0.54 0.50 0.59 0.78 0.95 1.17 1.35 1.78 2.06 2.08 2.13 2.24 2.40 2.26 2.10 2.03 1.98 1.78 1.57 1.43 1.12 0.88 0.75 0.67
1.09 0.76 0.63 0.76 0.80 0.75 0.65 0.55 0.44 0.43 0.45 0.42 0.40 0.42 0.35 0.34 0.31 0.33 0.42 0.49 0.48 0.46 0.54 0.66 0.81 0.99 1.07 1.37 1.76 1.91 1.94 2.07 2.20 2.37 2.61 2.57 2.43 2.11 1.68 1.39 1.27 1.14 1.04 0.93
0.91 0.64 0.78 1.01 0.96 0.75 0.66 0.44 0.44 0.45 0.56 0.56 0.44 0.55 0.37 0.33 0.34 0.35 0.43 0.47 0.47 0.48 0.51 0.60 0.70 0.80 0.89 1.04 1.37 1.70 1.88 1.99 2.01 2.10 2.32 2.43 2.27 1.92 1.59 1.40 1.38 1.40 1.31 1.22
0.90 0.67 0.84 1.08 0.90 0.72 0.60 0.42 0.50 0.56 0.62 0.62 0.44 0.51 0.42 0.35 0.41 0.42 0.45 0.49 0.49 0.51 0.53 0.57 0.60 0.63 0.71 0.85 1.14 1.47 1.72 1.93 1.92 1.85 1.93 2.13 2.22 2.11 1.94 1.76 1.58 1.47 1.41 1.30
0.67 0.69 0.88 0.95 0.81 0.77 0.67 0.69 0.79 0.87 1.03 0.98 0.44 0.43 0.38 0.39 0.48 0.47 0.45 0.52 0.54 0.59 0.60 0.59 0.56 0.56 0.63 0.70 0.86 1.16 1.43 1.72 1.87 1.82 1.84 1.89 1.94 2.04 1.96 1.79 1.70 1.56 1.50 1.41
0.93 0.93 0.89 0.95 1.14 1.09 1.08 1.41 1.71 1.67 1.47 0.84 0.27 0.29 0.39 0.38 0.43 0.45 0.46 0.50 0.50 0.49 0.49 0.49 0.49 0.49 0.56 0.62 0.68 0.89 1.04 1.30 1.55 1.68 1.72 1.76 1.80 1.86 1.85 1.76 1.69 1.66 1.51 1.39
1.01 1.10 0.85 0.92 1.22 1.24 1.08 1.26 1.30 1.10 0.73 0.37 0.21 0.32 0.40 0.35 0.36 0.39 0.42 0.45 0.48 0.50 0.49 0.47 0.47 0.50 0.58 0.59 0.64 0.74 0.84 0.98 1.19 1.35 1.42 1.46 1.56 1.62 1.60 1.60 1.54 1.51 1.45 1.37
0.76 0.84 0.67 0.70 0.86 0.97 1.01 0.92 0.71 0.84 0.60 0.41 0.29 0.26 0.28 0.28 0.32 0.35 0.35 0.36 0.41 0.43 0.43 0.44 0.44 0.49 0.54 0.56 0.58 0.64 0.72 0.76 0.85 0.99 1.14 1.23 1.26 1.26 1.25 1.27 1.25 1.27 1.29 1.25
0.70 0.82 0.72 0.76 0.95 0.98 0.90 0.76 0.81 1.04 0.83 0.56 0.29 0.22 0.33 0.33 0.33 0.32 0.31 0.30 0.35 0.39 0.41 0.41 0.41 0.43 0.46 0.48 0.48 0.53 0.58 0.57 0.61 0.69 0.81 0.92 1.01 1.02 1.05 1.07 1.03 0.98 1.01 1.04
0.60 0.82 0.92 0.91 1.00 0.80 0.70 0.80 0.85 0.84 0.65 0.64 0.42 0.31 0.32 0.33 0.35 0.34 0.33 0.32 0.34 0.36 0.40 0.41 0.41 0.42 0.42 0.42 0.41 0.43 0.42 0.43 0.45 0.52 0.61 0.64 0.74 0.81 0.86 0.88 0.84 0.82 0.78 0.79
0.46 0.69 0.89 0.73 0.55 0.49 0.54 0.54 0.65 0.86 0.66 0.53 0.48 0.32 0.23 0.26 0.29 0.32 0.35 0.32 0.31 0.33 0.37 0.40 0.42 0.40 0.40 0.40 0.40 0.41 0.38 0.37 0.37 0.43 0.48 0.49 0.56 0.65 0.67 0.72 0.70 0.68 0.68 0.64
0.50 0.65 0.85 0.74 0.62 0.58 0.56 0.42 0.50 0.71 0.86 0.65 0.57 0.35 0.20 0.23 0.27 0.30 0.34 0.32 0.31 0.31 0.34 0.35 0.35 0.37 0.38 0.38 0.38 0.42 0.41 0.36 0.34 0.36 0.39 0.40 0.44 0.51 0.54 0.57 0.62 0.57 0.59 0.56
0.62 0.59 0.67 0.67 0.54 0.53 0.50 0.41 0.50 0.86 1.01 0.58 0.38 0.30 0.23 0.25 0.26 0.27 0.29 0.30 0.29 0.27 0.26 0.27 0.28 0.31 0.34 0.36 0.38 0.39 0.40 0.38 0.37 0.34 0.34 0.35 0.38 0.45 0.47 0.46 0.49 0.50 0.53 0.57
0.54 0.58 0.45 0.39 0.29 0.32 0.38 0.42 0.51 0.68 0.59 0.54 0.31 0.25 0.26 0.25 0.27 0.26 0.24 0.24 0.21 0.18 0.18 0.19 0.20 0.22 0.26 0.30 0.32 0.31 0.32 0.34 0.37 0.36 0.35 0.34 0.35 0.40 0.44 0.41 0.42 0.43 0.45 0.54
0.34 0.45 0.40 0.35 0.24 0.27 0.38 0.39 0.40 0.45 0.45 0.45 0.33 0.28 0.22 0.23 0.24 0.22 0.18 0.16 0.13 0.11 0.11 0.10 0.10 0.12 0.13 0.17 0.21 0.23 0.24 0.28 0.34 0.36 0.34 0.32 0.33 0.36 0.41 0.41 0.42 0.43 0.44 0.50
0.24 0.33 0.45 0.37 0.22 0.29 0.39 0.33 0.37 0.41 0.41 0.41 0.46 0.37 0.23 0.20 0.19 0.16 0.16 0.13 0.11 0.09 0.09 0.08 0.07 0.08 0.09 0.10 0.12 0.14 0.15 0.18 0.23 0.29 0.32 0.32 0.33 0.36 0.40 0.43 0.46 0.52 0.58 0.60
0.18 0.27 0.47 0.38 0.26 0.32 0.27 0.18 0.23 0.32 0.32 0.29 0.32 0.28 0.21 0.18 0.17 0.15 0.14 0.12 0.09 0.09 0.10 0.10 0.09 0.09 0.09 0.10 0.10 0.11 0.12 0.15 0.18 0.21 0.26 0.28 0.29 0.33 0.36 0.44 0.50 0.56 0.60 0.63
0.12 0.29 0.51 0.40 0.27 0.19 0.17 0.17 0.23 0.32 0.36 0.27 0.24 0.19 0.19 0.16 0.13 0.14 0.12 0.11 0.10 0.09 0.09 0.09 0.09 0.09 0.09 0.10 0.11 0.12 0.15 0.19 0.21 0.25 0.29 0.31 0.36 0.39 0.41 0.46 0.48 0.52 0.57 0.60
0.14 0.24 0.47 0.40 0.33 0.22 0.17 0.11 0.13 0.25 0.41 0.23 0.18 0.17 0.17 0.14 0.19 0.17 0.12 0.10 0.11 0.09 0.08 0.09 0.11 0.11 0.12 0.14 0.16 0.18 0.20 0.23 0.25 0.30 0.35 0.36 0.42 0.49 0.50 0.52 0.50 0.47 0.48 0.53
0.22 0.32 0.39 0.33 0.29 0.13 0.10 0.07 0.10 0.30 0.41 0.20 0.15 0.15 0.14 0.14 0.17 0.15 0.12 0.10 0.09 0.09 0.09 0.10 0.11 0.14 0.18 0.23 0.26 0.27 0.29 0.32 0.32 0.33 0.36 0.36 0.39 0.43 0.44 0.43 0.44 0.42 0.41 0.41
0.12 0.17 0.15 0.16 0.22 0.16 0.09 0.09 0.17 0.22 0.13 0.10 0.09 0.10 0.10 0.13 0.13 0.13 0.13 0.11 0.10 0.13 0.13 0.12 0.14 0.15 0.17 0.25 0.31 0.32 0.31 0.32 0.31 0.30 0.33 0.34 0.36 0.38 0.38 0.37 0.39 0.38 0.35 0.33
0.08 0.11 0.13 0.11 0.13 0.13 0.11 0.13 0.14 0.11 0.08 0.07 0.07 0.07 0.08 0.12 0.13 0.13 0.13 0.11 0.10 0.12 0.13 0.12 0.13 0.13 0.15 0.20 0.26 0.33 0.33 0.31 0.31 0.31 0.33 0.32 0.31 0.32 0.34 0.33 0.33 0.32 0.28 0.25
0.09 0.07 0.09 0.11 0.10 0.09 0.10 0.10 0.10 0.10 0.08 0.07 0.06 0.05 0.05 0.08 0.11 0.13 0.12 0.12 0.11 0.11 0.12 0.13 0.12 0.13 0.16 0.18 0.20 0.24 0.26 0.27 0.28 0.28 0.29 0.31 0.31 0.29 0.28 0.28 0.28 0.28 0.27 0.25
0.09 0.09 0.09 0.13 0.10 0.08 0.09 0.09 0.07 0.07 0.06 0.05 0.04 0.04 0.05 0.08 0.10 0.12 0.13 0.14 0.13 0.13 0.13 0.14 0.14 0.14 0.15 0.15 0.16 0.16 0.17 0.19 0.23 0.25 0.26 0.25 0.26 0.27 0.26 0.25 0.25 0.27 0.26 0.28
0.09 0.09 0.11 0.13 0.09 0.09 0.09 0.07 0.06 0.05 0.04 0.04 0.04 0.04 0.05 0.07 0.08 0.07 0.08 0.11 0.14 0.14 0.14 0.14 0.14 0.14 0.15 0.15 0.15 0.15 0.16 0.17 0.19 0.22 0.23 0.24 0.24 0.24 0.24 0.24 0.23 0.25 0.26 0.29

GEFSCGP_prec_meanprecacc_144.txt.gz
Total_Precipitation_Accumulation
1.50 1.72 1.39 0.80 0.63 0.54 0.43 0.36 0.31 0.33 0.33 0.37 0.36 0.41 0.43 0.41 0.42 0.49 0.59 0.65 0.70 0.69 0.75 0.97 1.19 1.44 1.70 2.07 2.24 2.19 2.16 2.33 2.54 2.37 2.13 1.90 1.66 1.47 1.28 1.11 0.98 0.87 0.76 0.67
1.50 1.28 0.76 0.54 0.59 0.61 0.56 0.49 0.39 0.38 0.37 0.41 0.39 0.41 0.41 0.42 0.40 0.47 0.56 0.62 0.63 0.58 0.66 0.87 1.07 1.29 1.47 1.89 2.15 2.16 2.23 2.36 2.53 2.40 2.24 2.16 2.09 1.88 1.67 1.52 1.24 1.01 0.87 0.77
1.10 0.77 0.64 0.77 0.80 0.75 0.65 0.55 0.45 0.44 0.47 0.44 0.42 0.45 0.37 0.37 0.36 0.39 0.52 0.59 0.56 0.53 0.60 0.74 0.90 1.10 1.20 1.47 1.85 2.00 2.06 2.20 2.31 2.47 2.71 2.68 2.54 2.20 1.77 1.47 1.35 1.24 1.17 1.05
0.92 0.65 0.78 1.01 0.96 0.76 0.67 0.45 0.45 0.46 0.58 0.58 0.46 0.57 0.40 0.35 0.38 0.39 0.50 0.56 0.55 0.54 0.57 0.67 0.78 0.89 1.01 1.14 1.47 1.81 1.99 2.10 2.11 2.19 2.42 2.53 2.38 2.02 1.67 1.47 1.44 1.46 1.40 1.34
0.91 0.68 0.85 1.09 0.90 0.72 0.61 0.43 0.51 0.57 0.63 0.63 0.45 0.52 0.44 0.37 0.43 0.45 0.50 0.56 0.57 0.58 0.61 0.65 0.69 0.73 0.82 0.95 1.25 1.57 1.81 2.01 2.02 1.93 2.01 2.23 2.32 2.20 2.02 1.84 1.65 1.52 1.48 1.41
0.68 0.69 0.89 0.95 0.81 0.78 0.69 0.71 0.81 0.88 1.04 1.00 0.45 0.44 0.40 0.41 0.51 0.51 0.49 0.57 0.62 0.67 0.67 0.66 0.67 0.68 0.73 0.80 0.96 1.25 1.53 1.83 1.99 1.92 1.92 1.99 2.04 2.12 2.03 1.86 1.78 1.62 1.56 1.50
0.94 0.94 0.89 0.95 1.15 1.11 1.10 1.43 1.73 1.69 1.48 0.86 0.27 0.29 0.41 0.39 0.46 0.48 0.50 0.55 0.59 0.59 0.59 0.57 0.57 0.58 0.67 0.74 0.80 0.99 1.15 1.40 1.68 1.81 1.84 1.86 1.92 1.95 1.94 1.89 1.84 1.77 1.59 1.47
1.03 1.11 0.86 0.93 1.23 1.26 1.10 1.27 1.31 1.11 0.74 0.38 0.21 0.33 0.41 0.36 0.39 0.42 0.45 0.50 0.57 0.60 0.62 0.59 0.56 0.60 0.69 0.71 0.77 0.88 0.97 1.10 1.32 1.51 1.59 1.60 1.71 1.77 1.71 1.73 1.70 1.64 1.55 1.44
0.77 0.85 0.68 0.71 0.87 0.98 1.04 0.93 0.72 0.85 0.61 0.42 0.30 0.27 0.29 0.30 0.34 0.38 0.38 0.41 0.50 0.54 0.54 0.56 0.57 0.63 0.66 0.68 0.73 0.81 0.88 0.92 1.03 1.19 1.32 1.41 1.44 1.43 1.37 1.37 1.37 1.39 1.39 1.33
0.71 0.83 0.73 0.76 0.96 1.00 0.91 0.77 0.82 1.06 0.84 0.58 0.29 0.23 0.35 0.35 0.36 0.36 0.35 0.36 0.43 0.50 0.53 0.55 0.57 0.58 0.58 0.60 0.63 0.70 0.74 0.74 0.80 0.90 0.97 1.11 1.21 1.19 1.19 1.19 1.16 1.11 1.11 1.11
0.61 0.83 0.93 0.92 1.01 0.81 0.71 0.81 0.87 0.85 0.66 0.66 0.43 0.32 0.34 0.36 0.38 0.38 0.39 0.39 0.43 0.47 0.54 0.59 0.61 0.60 0.57 0.58 0.59 0.61 0.57 0.58 0.63 0.71 0.77 0.81 0.92 0.99 1.01 1.01 0.95 0.95 0.90 0.87
0.47 0.69 0.89 0.74 0.55 0.49 0.54 0.54 0.66 0.88 0.67 0.55 0.50 0.34 0.25 0.29 0.33 0.36 0.41 0.40 0.41 0.44 0.49 0.53 0.59 0.57 0.56 0.57 0.58 0.59 0.52 0.51 0.53 0.59 0.63 0.65 0.73 0.82 0.84 0.88 0.84 0.79 0.79 0.73
0.51 0.66 0.85 0.74 0.63 0.59 0.56 0.42 0.50 0.72 0.87 0.66 0.58 0.36 0.22 0.25 0.30 0.34 0.39 0.40 0.40 0.41 0.43 0.45 0.46 0.50 0.52 0.53 0.54 0.58 0.56 0.50 0.49 0.51 0.54 0.57 0.63 0.68 0.71 0.72 0.76 0.69 0.70 0.66
0.63 0.60 0.67 0.68 0.54 0.53 0.50 0.41 0.50 0.87 1.02 0.59 0.39 0.31 0.24 0.27 0.28 0.30 0.33 0.35 0.35 0.34 0.33 0.33 0.36 0.41 0.45 0.48 0.50 0.52 0.55 0.53 0.52 0.50 0.48 0.50 0.55 0.63 0.66 0.61 0.63 0.62 0.64 0.67
0.54 0.58 0.45 0.39 0.29 0.32 0.38 0.42 0.51 0.68 0.59 0.54 0.31 0.25 0.27 0.27 0.29 0.29 0.26 0.27 0.24 0.22 0.22 0.24 0.26 0.28 0.33 0.38 0.40 0.41 0.44 0.47 0.49 0.49 0.46 0.46 0.48 0.55 0.60 0.54 0.53 0.54 0.55 0.63
0.34 0.45 0.40 0.35 0.24 0.27 0.38 0.39 0.40 0.45 0.45 0.45 0.33 0.28 0.23 0.25 0.26 0.23 0.19 0.18 0.15 0.13 0.13 0.14 0.15 0.17 0.18 0.23 0.27 0.29 0.32 0.38 0.43 0.44 0.44 0.43 0.43 0.47 0.56 0.55 0.53 0.52 0.54 0.58
0.24 0.33 0.45 0.37 0.22 0.29 0.39 0.33 0.37 0.41 0.41 0.41 0.46 0.37 0.23 0.21 0.21 0.19 0.18 0.15 0.13 0.11 0.10 0.09 0.09 0.10 0.11 0.13 0.16 0.19 0.21 0.25 0.30 0.37 0.40 0.40 0.42 0.46 0.54 0.57 0.57 0.61 0.67 0.69
0.18 0.27 0.47 0.38 0.26 0.32 0.27 0.18 0.23 0.32 0.32 0.29 0.32 0.28 0.22 0.19 0.18 0.17 0.16 0.13 0.10 0.10 0.11 0.11 0.10 0.10 0.10 0.11 0.12 0.12 0.15 0.18 0.22 0.26 0.31 0.33 0.35 0.40 0.43 0.52 0.59 0.64 0.68 0.72
0.12 0.29 0.51 0.40 0.27 0.19 0.17 0.17 0.23 0.32 0.36 0.27 0.24 0.19 0.19 0.16 0.14 0.15 0.14 0.12 0.11 0.10 0.10 0.10 0.10 0.10 0.10 0.10 0.11 0.12 0.15 0.19 0.21 0.26 0.31 0.33 0.39 0.43 0.45 0.50 0.54 0.58 0.64 0.69
0.14 0.24 0.48 0.40 0.33 0.22 0.17 0.11 0.13 0.25 0.41 0.23 0.18 0.17 0.17 0.14 0.19 0.17 0.12 0.11 0.12 0.10 0.09 0.10 0.11 0.11 0.12 0.15 0.17 0.18 0.20 0.23 0.25 0.30 0.36 0.37 0.43 0.51 0.53 0.55 0.54 0.51 0.55 0.62
0.22 0.32 0.40 0.34 0.29 0.13 0.10 0.07 0.10 0.30 0.41 0.20 0.15 0.15 0.14 0.14 0.18 0.15 0.12 0.11 0.10 0.11 0.10 0.11 0.12 0.14 0.18 0.23 0.26 0.27 0.29 0.32 0.32 0.33 0.36 0.36 0.40 0.45 0.46 0.47 0.47 0.45 0.45 0.47
0.13 0.17 0.16 0.16 0.22 0.16 0.09 0.09 0.17 0.22 0.13 0.10 0.09 0.10 0.10 0.13 0.13 0.13 0.13 0.12 0.11 0.15 0.14 0.13 0.14 0.16 0.18 0.25 0.31 0.32 0.31 0.32 0.31 0.31 0.33 0.34 0.36 0.39 0.40 0.40 0.42 0.42 0.39 0.39
0.08 0.11 0.13 0.11 0.13 0.13 0.11 0.13 0.14 0.11 0.08 0.07 0.07 0.07 0.08 0.12 0.13 0.13 0.13 0.11 0.10 0.13 0.14 0.13 0.14 0.14 0.16 0.20 0.26 0.33 0.33 0.31 0.31 0.31 0.33 0.33 0.32 0.33 0.36 0.35 0.36 0.35 0.32 0.30
0.09 0.07 0.09 0.11 0.10 0.09 0.10 0.10 0.10 0.10 0.08 0.07 0.06 0.05 0.05 0.08 0.11 0.13 0.12 0.12 0.11 0.11 0.13 0.13 0.13 0.14 0.17 0.18 0.20 0.24 0.26 0.27 0.28 0.28 0.29 0.31 0.32 0.30 0.28 0.29 0.31 0.32 0.31 0.30
0.09 0.09 0.09 0.13 0.10 0.09 0.09 0.09 0.07 0.07 0.06 0.05 0.04 0.04 0.05 0.08 0.10 0.12 0.13 0.14 0.13 0.13 0.13 0.15 0.14 0.15 0.16 0.15 0.16 0.16 0.17 0.19 0.23 0.26 0.26 0.25 0.26 0.28 0.27 0.26 0.27 0.30 0.30 0.33
0.09 0.09 0.11 0.13 0.09 0.09 0.09 0.07 0.06 0.05 0.05 0.04 0.04 0.04 0.05 0.07 0.08 0.07 0.08 0.11 0.14 0.14 0.14 0.14 0.14 0.14 0.15 0.15 0.15 0.15 0.16 0.17 0.20 0.22 0.23 0.24 0.24 0.24 0.24 0.25 0.24 0.27 0.29 0.33

GEFSCGP_prec_meanprecacc_150.txt.gz
Total_Precipitation_Accumulation
1.58 1.80 1.43 0.82 0.64 0.55 0.44 0.36 0.32 0.33 0.34 0.38 0.36 0.42 0.44 0.41 0.42 0.50 0.59 0.66 0.71 0.70 0.75 0.98 1.20 1.46 1.75 2.12 2.29 2.25 2.20 2.36 2.57 2.40 2.16 1.94 1.71 1.53 1.35 1.19 1.07 0.97 0.87 0.77
1.55 1.32 0.79 0.56 0.60 0.63 0.57 0.50 0.41 0.39 0.37 0.42 0.39 0.42 0.42 0.42 0.41 0.47 0.57 0.63 0.63 0.58 0.67 0.89 1.09 1.33 1.51 1.95 2.21 2.22 2.27 2.41 2.57 2.44 2.29 2.22 2.14 1.94 1.75 1.61 1.33 1.11 0.98 0.89
1.14 0.80 0.65 0.78 0.81 0.77 0.67 0.57 0.46 0.45 0.47 0.45 0.43 0.46 0.38 0.37 0.37 0.40 0.53 0.60 0.57 0.54 0.62 0.77 0.94 1.14 1.24 1.52 1.90 2.05 2.12 2.28 2.38 2.52 2.76 2.74 2.60 2.28 1.85 1.57 1.46 1.33 1.27 1.16
0.95 0.67 0.80 1.02 0.97 0.77 0.68 0.46 0.46 0.47 0.60 0.60 0.47 0.59 0.41 0.36 0.39 0.41 0.51 0.57 0.56 0.55 0.60 0.71 0.82 0.93 1.06 1.20 1.54 1.87 2.07 2.20 2.21 2.27 2.48 2.59 2.44 2.09 1.75 1.56 1.55 1.58 1.50 1.45
0.94 0.69 0.86 1.10 0.91 0.73 0.62 0.44 0.52 0.58 0.65 0.65 0.45 0.53 0.45 0.38 0.44 0.47 0.52 0.58 0.58 0.59 0.63 0.69 0.73 0.77 0.85 1.01 1.33 1.65 1.88 2.10 2.12 2.03 2.10 2.30 2.39 2.27 2.10 1.93 1.77 1.66 1.61 1.53
0.70 0.70 0.91 0.96 0.82 0.79 0.70 0.72 0.82 0.90 1.07 1.03 0.46 0.45 0.41 0.43 0.53 0.52 0.50 0.59 0.64 0.70 0.71 0.71 0.71 0.71 0.76 0.83 1.00 1.29 1.58 1.90 2.07 2.01 2.02 2.08 2.12 2.20 2.12 1.96 1.91 1.78 1.74 1.65
0.95 0.94 0.90 0.96 1.17 1.12 1.11 1.46 1.78 1.73 1.52 0.88 0.28 0.30 0.42 0.40 0.47 0.50 0.52 0.58 0.62 0.64 0.64 0.62 0.60 0.61 0.70 0.78 0.84 1.03 1.19 1.46 1.75 1.87 1.90 1.91 1.98 2.02 2.03 1.99 1.97 1.92 1.75 1.63
1.04 1.13 0.88 0.94 1.25 1.28 1.11 1.30 1.36 1.16 0.76 0.39 0.22 0.34 0.42 0.37 0.40 0.44 0.47 0.53 0.61 0.66 0.67 0.64 0.60 0.64 0.74 0.76 0.82 0.92 1.02 1.14 1.37 1.57 1.63 1.65 1.76 1.82 1.78 1.82 1.82 1.77 1.68 1.57
0.79 0.87 0.69 0.72 0.88 0.99 1.05 0.96 0.74 0.89 0.63 0.43 0.31 0.27 0.30 0.30 0.34 0.39 0.39 0.43 0.54 0.59 0.60 0.62 0.63 0.67 0.72 0.75 0.79 0.87 0.93 0.96 1.08 1.25 1.37 1.47 1.49 1.50 1.45 1.47 1.49 1.50 1.51 1.46
0.73 0.84 0.74 0.77 0.97 1.01 0.93 0.78 0.84 1.09 0.87 0.59 0.30 0.23 0.36 0.36 0.37 0.37 0.37 0.39 0.47 0.55 0.58 0.62 0.65 0.64 0.65 0.68 0.71 0.79 0.81 0.80 0.86 0.96 1.03 1.18 1.27 1.27 1.30 1.30 1.27 1.24 1.23 1.23
0.63 0.84 0.95 0.93 1.02 0.82 0.72 0.82 0.88 0.87 0.68 0.68 0.45 0.34 0.35 0.37 0.39 0.40 0.41 0.43 0.48 0.53 0.60 0.65 0.68 0.66 0.64 0.67 0.69 0.71 0.66 0.67 0.71 0.79 0.83 0.88 1.00 1.07 1.12 1.12 1.05 1.06 1.02 0.97
0.49 0.71 0.91 0.74 0.56 0.50 0.54 0.55 0.67 0.90 0.68 0.56 0.51 0.35 0.26 0.30 0.34 0.38 0.43 0.43 0.45 0.49 0.54 0.58 0.64 0.64 0.64 0.66 0.68 0.70 0.63 0.60 0.63 0.69 0.70 0.72 0.81 0.91 0.96 1.00 0.94 0.89 0.90 0.84
0.52 0.67 0.87 0.76 0.64 0.59 0.57 0.43 0.51 0.73 0.89 0.67 0.60 0.38 0.23 0.26 0.31 0.35 0.40 0.42 0.43 0.44 0.47 0.49 0.51 0.56 0.59 0.62 0.65 0.71 0.67 0.58 0.57 0.59 0.60 0.64 0.70 0.78 0.82 0.83 0.85 0.79 0.81 0.75
0.64 0.60 0.68 0.70 0.55 0.54 0.51 0.41 0.50 0.88 1.04 0.60 0.40 0.32 0.25 0.27 0.29 0.31 0.34 0.37 0.37 0.37 0.35 0.36 0.40 0.45 0.50 0.55 0.59 0.62 0.64 0.61 0.61 0.60 0.57 0.58 0.63 0.73 0.77 0.72 0.74 0.74 0.76 0.76
0.54 0.59 0.46 0.39 0.29 0.32 0.38 0.42 0.51 0.68 0.59 0.55 0.32 0.26 0.27 0.28 0.30 0.29 0.27 0.28 0.26 0.24 0.24 0.27 0.29 0.32 0.38 0.43 0.46 0.50 0.53 0.55 0.59 0.60 0.57 0.57 0.58 0.65 0.71 0.65 0.65 0.65 0.66 0.73
0.34 0.45 0.40 0.36 0.24 0.27 0.38 0.39 0.40 0.45 0.45 0.45 0.33 0.29 0.23 0.25 0.26 0.24 0.20 0.18 0.16 0.15 0.15 0.16 0.18 0.20 0.23 0.27 0.32 0.37 0.41 0.46 0.52 0.54 0.55 0.54 0.53 0.56 0.64 0.64 0.62 0.62 0.64 0.69
0.24 0.33 0.45 0.37 0.22 0.29 0.40 0.34 0.37 0.41 0.41 0.41 0.46 0.38 0.24 0.22 0.21 0.19 0.18 0.15 0.13 0.11 0.11 0.11 0.11 0.12 0.14 0.17 0.22 0.25 0.29 0.33 0.39 0.46 0.50 0.52 0.53 0.55 0.61 0.63 0.64 0.70 0.76 0.79
0.18 0.28 0.47 0.39 0.26 0.32 0.27 0.18 0.23 0.32 0.32 0.29 0.32 0.28 0.22 0.19 0.18 0.17 0.16 0.13 0.10 0.10 0.11 0.12 0.12 0.12 0.12 0.14 0.15 0.16 0.20 0.25 0.29 0.33 0.40 0.42 0.44 0.47 0.50 0.57 0.65 0.72 0.76 0.80
0.12 0.29 0.51 0.40 0.27 0.19 0.17 0.17 0.23 0.32 0.36 0.27 0.24 0.20 0.19 0.17 0.14 0.15 0.14 0.12 0.11 0.10 0.10 0.11 0.11 0.11 0.12 0.11 0.12 0.14 0.18 0.23 0.27 0.32 0.37 0.39 0.44 0.48 0.51 0.56 0.60 0.65 0.71 0.74
0.14 0.24 0.48 0.40 0.33 0.22 0.17 0.11 0.13 0.25 0.41 0.23 0.18 0.17 0.17 0.15 0.19 0.18 0.12 0.11 0.12 0.10 0.09 0.11 0.11 0.12 0.14 0.16 0.17 0.19 0.22 0.25 0.27 0.33 0.39 0.40 0.46 0.54 0.57 0.59 0.58 0.57 0.61 0.66
0.22 0.32 0.40 0.34 0.29 0.13 0.10 0.07 0.10 0.30 0.41 0.20 0.15 0.15 0.14 0.14 0.18 0.15 0.12 0.11 0.10 0.11 0.11 0.11 0.12 0.14 0.18 0.24 0.26 0.27 0.29 0.32 0.33 0.34 0.38 0.38 0.41 0.46 0.49 0.49 0.50 0.49 0.50 0.51
0.13 0.17 0.16 0.16 0.22 0.16 0.09 0.09 0.18 0.22 0.13 0.10 0.09 0.10 0.10 0.13 0.13 0.13 0.13 0.12 0.11 0.15 0.14 0.13 0.15 0.16 0.18 0.25 0.32 0.32 0.31 0.32 0.32 0.31 0.34 0.35 0.38 0.40 0.41 0.42 0.44 0.45 0.43 0.42
0.08 0.11 0.13 0.11 0.14 0.13 0.11 0.13 0.14 0.11 0.08 0.07 0.07 0.07 0.08 0.12 0.13 0.14 0.13 0.11 0.10 0.13 0.14 0.13 0.14 0.15 0.16 0.20 0.26 0.33 0.33 0.31 0.31 0.32 0.33 0.33 0.32 0.34 0.37 0.37 0.38 0.38 0.36 0.34
0.09 0.07 0.09 0.11 0.10 0.09 0.10 0.10 0.10 0.10 0.08 0.07 0.06 0.05 0.05 0.08 0.11 0.13 0.13 0.12 0.11 0.11 0.13 0.13 0.13 0.14 0.17 0.18 0.20 0.24 0.26 0.27 0.28 0.28 0.29 0.31 0.32 0.30 0.29 0.30 0.32 0.34 0.34 0.33
0.09 0.09 0.09 0.13 0.10 0.09 0.09 0.09 0.07 0.07 0.06 0.05 0.04 0.04 0.05 0.08 0.10 0.12 0.13 0.14 0.13 0.13 0.13 0.15 0.14 0.15 0.16 0.16 0.17 0.17 0.18 0.20 0.23 0.26 0.26 0.26 0.26 0.28 0.27 0.26 0.28 0.32 0.33 0.36
0.09 0.09 0.11 0.13 0.09 0.09 0.09 0.07 0.06 0.05 0.05 0.04 0.04 0.04 0.05 0.07 0.08 0.07 0.08 0.11 0.14 0.14 0.14 0.15 0.14 0.14 0.15 0.15 0.15 0.16 0.16 0.17 0.20 0.22 0.23 0.24 0.25 0.24 0.25 0.25 0.25 0.28 0.30 0.35

GEFSCGP_prec_meanprecacc_156.txt.gz
Total_Precipitation_Accumulation
1.64 1.86 1.47 0.84 0.66 0.57 0.45 0.38 0.34 0.35 0.34 0.39 0.37 0.42 0.44 0.41 0.42 0.50 0.60 0.66 0.71 0.70 0.75 0.98 1.21 1.47 1.76 2.13 2.29 2.26 2.21 2.38 2.59 2.43 2.21 2.00 1.78 1.60 1.41 1.24 1.12 1.03 0.94 0.85
1.59 1.36 0.82 0.59 0.62 0.64 0.59 0.52 0.42 0.40 0.37 0.43 0.40 0.43 0.42 0.42 0.41 0.48 0.57 0.63 0.64 0.59 0.67 0.90 1.11 1.34 1.52 1.96 2.22 2.23 2.29 2.42 2.59 2.47 2.33 2.27 2.20 1.99 1.79 1.64 1.37 1.17 1.06 0.97
1.16 0.82 0.68 0.81 0.83 0.77 0.68 0.58 0.47 0.46 0.48 0.46 0.44 0.47 0.38 0.38 0.37 0.41 0.53 0.60 0.57 0.54 0.62 0.77 0.95 1.16 1.25 1.53 1.90 2.06 2.13 2.29 2.41 2.55 2.80 2.78 2.66 2.34 1.90 1.61 1.50 1.39 1.35 1.25
0.97 0.68 0.81 1.04 0.98 0.77 0.69 0.46 0.47 0.48 0.61 0.61 0.48 0.60 0.41 0.36 0.39 0.41 0.52 0.58 0.56 0.56 0.60 0.72 0.83 0.94 1.07 1.20 1.54 1.88 2.08 2.22 2.25 2.32 2.54 2.63 2.49 2.15 1.80 1.59 1.59 1.63 1.58 1.55
0.95 0.70 0.87 1.11 0.91 0.74 0.63 0.44 0.53 0.60 0.67 0.66 0.46 0.54 0.46 0.39 0.45 0.47 0.53 0.58 0.59 0.60 0.64 0.70 0.74 0.78 0.86 1.01 1.34 1.65 1.89 2.12 2.15 2.08 2.17 2.38 2.45 2.32 2.15 1.96 1.80 1.73 1.69 1.59
0.71 0.71 0.91 0.97 0.82 0.79 0.71 0.73 0.83 0.91 1.09 1.05 0.47 0.45 0.42 0.43 0.53 0.53 0.51 0.60 0.65 0.70 0.71 0.72 0.73 0.72 0.77 0.85 1.01 1.31 1.60 1.92 2.10 2.05 2.07 2.15 2.19 2.26 2.16 1.99 1.94 1.85 1.82 1.72
0.97 0.96 0.91 0.97 1.18 1.13 1.12 1.47 1.80 1.75 1.54 0.89 0.28 0.31 0.43 0.41 0.47 0.50 0.53 0.59 0.63 0.65 0.65 0.63 0.62 0.62 0.71 0.79 0.86 1.05 1.22 1.49 1.77 1.90 1.93 1.95 2.02 2.06 2.07 2.02 2.00 1.97 1.83 1.70
1.06 1.15 0.88 0.95 1.25 1.29 1.12 1.31 1.38 1.18 0.78 0.40 0.22 0.34 0.43 0.37 0.40 0.44 0.48 0.55 0.63 0.68 0.68 0.65 0.61 0.64 0.75 0.77 0.83 0.94 1.04 1.17 1.40 1.60 1.67 1.69 1.80 1.87 1.81 1.85 1.84 1.80 1.74 1.65
0.80 0.88 0.70 0.73 0.88 1.00 1.06 0.97 0.76 0.91 0.66 0.44 0.31 0.28 0.31 0.31 0.35 0.40 0.41 0.45 0.56 0.61 0.61 0.64 0.65 0.68 0.73 0.76 0.81 0.88 0.95 0.98 1.10 1.27 1.41 1.50 1.53 1.54 1.49 1.50 1.52 1.54 1.57 1.55
0.74 0.86 0.75 0.78 0.98 1.02 0.94 0.79 0.85 1.11 0.90 0.61 0.31 0.24 0.37 0.37 0.38 0.38 0.39 0.41 0.50 0.57 0.60 0.64 0.67 0.65 0.66 0.70 0.73 0.81 0.83 0.82 0.88 0.98 1.06 1.21 1.31 1.30 1.33 1.33 1.31 1.29 1.28 1.31
0.63 0.85 0.95 0.93 1.03 0.83 0.73 0.82 0.89 0.88 0.70 0.71 0.47 0.35 0.36 0.38 0.40 0.41 0.43 0.45 0.50 0.55 0.63 0.68 0.71 0.68 0.66 0.70 0.72 0.74 0.69 0.71 0.74 0.81 0.86 0.91 1.02 1.10 1.15 1.15 1.08 1.10 1.06 1.03
0.49 0.71 0.91 0.75 0.56 0.50 0.55 0.55 0.68 0.91 0.70 0.57 0.53 0.36 0.26 0.31 0.35 0.39 0.45 0.45 0.47 0.51 0.56 0.61 0.67 0.67 0.66 0.69 0.72 0.75 0.68 0.65 0.67 0.73 0.73 0.76 0.84 0.95 0.99 1.03 0.98 0.93 0.95 0.89
0.53 0.68 0.87 0.76 0.64 0.59 0.57 0.43 0.52 0.74 0.90 0.68 0.61 0.38 0.23 0.27 0.32 0.36 0.42 0.44 0.44 0.46 0.49 0.51 0.53 0.59 0.63 0.64 0.67 0.74 0.71 0.64 0.61 0.62 0.63 0.67 0.73 0.81 0.85 0.86 0.89 0.83 0.86 0.81
0.64 0.61 0.69 0.71 0.56 0.54 0.51 0.42 0.51 0.88 1.05 0.61 0.40 0.32 0.25 0.28 0.30 0.32 0.35 0.38 0.38 0.38 0.37 0.38 0.41 0.47 0.52 0.57 0.62 0.65 0.67 0.67 0.66 0.63 0.58 0.61 0.65 0.76 0.79 0.74 0.77 0.77 0.82 0.85
0.55 0.59 0.46 0.40 0.29 0.32 0.38 0.42 0.51 0.68 0.60 0.56 0.32 0.26 0.27 0.28 0.30 0.30 0.28 0.28 0.26 0.25 0.25 0.27 0.29 0.33 0.39 0.44 0.48 0.53 0.57 0.59 0.64 0.64 0.61 0.60 0.60 0.68 0.74 0.67 0.67 0.69 0.72 0.83
0.35 0.46 0.41 0.36 0.24 0.27 0.38 0.39 0.40 0.45 0.45 0.45 0.33 0.29 0.24 0.25 0.27 0.24 0.20 0.19 0.17 0.15 0.16 0.17 0.18 0.21 0.24 0.28 0.34 0.39 0.45 0.49 0.57 0.59 0.60 0.59 0.58 0.61 0.69 0.67 0.65 0.66 0.69 0.77
0.25 0.33 0.46 0.38 0.23 0.29 0.40 0.34 0.37 0.41 0.41 0.41 0.46 0.38 0.24 0.22 0.22 0.20 0.18 0.15 0.13 0.12 0.12 0.12 0.12 0.13 0.15 0.18 0.23 0.28 0.32 0.37 0.44 0.51 0.56 0.58 0.61 0.63 0.68 0.69 0.69 0.74 0.80 0.85
0.19 0.28 0.48 0.39 0.26 0.33 0.27 0.18 0.23 0.32 0.32 0.29 0.33 0.28 0.23 0.20 0.19 0.18 0.17 0.14 0.11 0.10 0.12 0.13 0.13 0.13 0.13 0.14 0.16 0.18 0.23 0.29 0.33 0.38 0.46 0.49 0.54 0.57 0.58 0.65 0.71 0.77 0.81 0.86
0.13 0.30 0.52 0.41 0.27 0.19 0.17 0.17 0.23 0.32 0.36 0.27 0.24 0.20 0.19 0.17 0.15 0.16 0.14 0.13 0.12 0.10 0.11 0.12 0.11 0.12 0.13 0.12 0.13 0.15 0.19 0.25 0.29 0.36 0.43 0.48 0.55 0.57 0.59 0.65 0.67 0.71 0.77 0.80
0.14 0.26 0.49 0.41 0.34 0.23 0.17 0.11 0.13 0.25 0.41 0.23 0.18 0.17 0.17 0.15 0.20 0.18 0.13 0.12 0.13 0.11 0.10 0.11 0.12 0.13 0.14 0.16 0.18 0.19 0.23 0.26 0.29 0.36 0.43 0.46 0.53 0.62 0.65 0.67 0.65 0.62 0.66 0.72
0.23 0.33 0.41 0.35 0.30 0.14 0.10 0.07 0.10 0.30 0.41 0.20 0.15 0.15 0.14 0.14 0.18 0.15 0.12 0.11 0.11 0.11 0.11 0.11 0.12 0.14 0.19 0.24 0.26 0.27 0.30 0.33 0.34 0.36 0.41 0.40 0.44 0.50 0.53 0.54 0.54 0.54 0.54 0.55
0.13 0.17 0.16 0.16 0.22 0.16 0.10 0.09 0.18 0.22 0.13 0.10 0.09 0.10 0.10 0.13 0.13 0.14 0.13 0.12 0.11 0.15 0.14 0.13 0.15 0.16 0.18 0.25 0.32 0.32 0.31 0.32 0.32 0.32 0.36 0.37 0.39 0.42 0.43 0.44 0.46 0.48 0.46 0.44
0.09 0.12 0.13 0.12 0.14 0.13 0.11 0.13 0.14 0.11 0.08 0.07 0.07 0.08 0.08 0.12 0.13 0.14 0.13 0.11 0.10 0.13 0.14 0.13 0.14 0.15 0.16 0.20 0.26 0.33 0.33 0.31 0.31 0.32 0.35 0.34 0.33 0.35 0.38 0.38 0.40 0.40 0.38 0.37
0.09 0.07 0.09 0.11 0.10 0.09 0.10 0.10 0.10 0.10 0.08 0.07 0.06 0.05 0.05 0.08 0.11 0.13 0.13 0.12 0.11 0.11 0.13 0.13 0.13 0.14 0.17 0.18 0.20 0.24 0.27 0.27 0.28 0.29 0.30 0.32 0.33 0.31 0.30 0.31 0.34 0.36 0.36 0.36
0.09 0.09 0.10 0.13 0.10 0.09 0.09 0.09 0.07 0.07 0.06 0.05 0.04 0.04 0.05 0.08 0.10 0.12 0.13 0.14 0.13 0.14 0.13 0.15 0.14 0.15 0.16 0.16 0.17 0.17 0.18 0.20 0.23 0.26 0.26 0.26 0.28 0.28 0.28 0.27 0.30 0.34 0.35 0.39
0.09 0.09 0.12 0.14 0.09 0.10 0.09 0.07 0.06 0.05 0.05 0.04 0.04 0.04 0.05 0.07 0.08 0.07 0.08 0.11 0.14 0.14 0.14 0.15 0.14 0.14 0.15 0.15 0.15 0.16 0.16 0.17 0.20 0.22 0.23 0.24 0.25 0.25 0.26 0.26 0.25 0.29 0.32 0.36

GEFSCGP_prec_meanprecacc_162.txt.gz
Total_Precipitation_Accumulation
1.68 1.90 1.50 0.86 0.67 0.58 0.47 0.38 0.34 0.35 0.35 0.39 0.38 0.42 0.45 0.42 0.43 0.50 0.60 0.66 0.71 0.70 0.75 0.98 1.21 1.47 1.76 2.13 2.29 2.26 2.22 2.38 2.59 2.43 2.21 2.01 1.80 1.63 1.45 1.29 1.17 1.09 0.99 0.90
1.62 1.39 0.84 0.60 0.63 0.66 0.60 0.53 0.43 0.42 0.38 0.43 0.41 0.44 0.43 0.43 0.42 0.48 0.57 0.63 0.64 0.59 0.67 0.90 1.11 1.34 1.52 1.96 2.22 2.24 2.30 2.43 2.59 2.47 2.33 2.29 2.22 2.01 1.82 1.68 1.41 1.22 1.11 1.01
1.19 0.84 0.70 0.82 0.85 0.79 0.69 0.59 0.48 0.47 0.50 0.47 0.44 0.48 0.39 0.38 0.37 0.41 0.54 0.60 0.57 0.54 0.63 0.78 0.96 1.16 1.26 1.53 1.91 2.07 2.14 2.29 2.41 2.55 2.80 2.80 2.70 2.36 1.92 1.63 1.52 1.42 1.39 1.29
0.99 0.70 0.82 1.05 0.99 0.78 0.70 0.48 0.48 0.49 0.62 0.63 0.48 0.61 0.42 0.37 0.39 0.41 0.53 0.58 0.57 0.56 0.60 0.72 0.84 0.95 1.07 1.21 1.55 1.89 2.09 2.23 2.25 2.32 2.55 2.65 2.52 2.17 1.83 1.62 1.62 1.67 1.62 1.58
0.96 0.71 0.88 1.12 0.92 0.74 0.64 0.45 0.54 0.61 0.68 0.68 0.47 0.55 0.46 0.39 0.45 0.47 0.53 0.59 0.59 0.60 0.64 0.70 0.75 0.79 0.87 1.02 1.35 1.66 1.90 2.12 2.16 2.09 2.19 2.40 2.47 2.35 2.18 2.00 1.86 1.79 1.73 1.63
0.71 0.71 0.91 0.97 0.83 0.80 0.71 0.73 0.84 0.91 1.10 1.06 0.47 0.46 0.42 0.43 0.53 0.53 0.51 0.60 0.65 0.70 0.72 0.72 0.73 0.73 0.79 0.86 1.02 1.32 1.61 1.92 2.10 2.06 2.09 2.17 2.22 2.28 2.20 2.05 2.01 1.90 1.86 1.74
0.99 0.96 0.91 0.97 1.18 1.13 1.12 1.48 1.82 1.76 1.55 0.90 0.28 0.31 0.43 0.41 0.47 0.50 0.53 0.61 0.65 0.66 0.66 0.64 0.62 0.63 0.73 0.81 0.87 1.07 1.24 1.49 1.78 1.91 1.94 1.97 2.05 2.10 2.12 2.10 2.07 2.03 1.88 1.74
1.08 1.15 0.88 0.95 1.26 1.29 1.13 1.32 1.39 1.19 0.78 0.40 0.22 0.34 0.43 0.37 0.40 0.44 0.49 0.56 0.65 0.69 0.69 0.66 0.62 0.65 0.76 0.79 0.85 0.96 1.06 1.18 1.41 1.61 1.69 1.72 1.84 1.92 1.89 1.95 1.92 1.86 1.78 1.69
0.81 0.89 0.70 0.74 0.89 1.00 1.07 0.97 0.76 0.92 0.67 0.45 0.32 0.28 0.32 0.32 0.36 0.40 0.42 0.47 0.58 0.62 0.62 0.64 0.65 0.69 0.74 0.77 0.82 0.90 0.97 1.00 1.11 1.30 1.43 1.54 1.58 1.59 1.55 1.56 1.57 1.60 1.62 1.59
0.74 0.87 0.75 0.78 0.98 1.02 0.94 0.79 0.86 1.12 0.92 0.62 0.32 0.25 0.38 0.38 0.39 0.40 0.41 0.43 0.52 0.58 0.61 0.64 0.67 0.66 0.66 0.70 0.74 0.82 0.84 0.83 0.90 1.00 1.07 1.23 1.33 1.34 1.36 1.37 1.34 1.32 1.31 1.33
0.64 0.86 0.96 0.94 1.04 0.83 0.73 0.83 0.90 0.90 0.71 0.72 0.48 0.36 0.37 0.39 0.41 0.43 0.46 0.47 0.52 0.56 0.63 0.69 0.72 0.69 0.67 0.71 0.73 0.75 0.70 0.72 0.75 0.82 0.87 0.93 1.05 1.12 1.18 1.19 1.11 1.12 1.09 1.05
0.50 0.72 0.91 0.75 0.56 0.50 0.56 0.56 0.69 0.93 0.71 0.58 0.54 0.37 0.27 0.31 0.36 0.41 0.48 0.47 0.48 0.52 0.57 0.62 0.69 0.68 0.67 0.70 0.73 0.75 0.68 0.66 0.68 0.73 0.74 0.77 0.85 0.97 1.01 1.06 1.01 0.95 0.97 0.91
0.54 0.68 0.88 0.77 0.65 0.60 0.58 0.44 0.53 0.76 0.91 0.69 0.62 0.39 0.24 0.28 0.33 0.38 0.45 0.46 0.46 0.47 0.50 0.52 0.55 0.60 0.64 0.65 0.68 0.74 0.72 0.64 0.62 0.63 0.63 0.68 0.73 0.82 0.87 0.89 0.92 0.86 0.89 0.83
0.66 0.62 0.69 0.71 0.56 0.55 0.52 0.42 0.51 0.90 1.07 0.62 0.41 0.33 0.26 0.29 0.31 0.33 0.37 0.40 0.40 0.40 0.38 0.39 0.43 0.48 0.53 0.57 0.62 0.65 0.68 0.68 0.67 0.64 0.59 0.61 0.66 0.77 0.81 0.77 0.80 0.79 0.84 0.87
0.56 0.60 0.47 0.40 0.29 0.33 0.39 0.43 0.51 0.69 0.60 0.57 0.33 0.27 0.29 0.29 0.31 0.31 0.30 0.30 0.28 0.26 0.26 0.28 0.30 0.33 0.39 0.44 0.48 0.53 0.58 0.60 0.65 0.65 0.62 0.61 0.61 0.70 0.75 0.69 0.69 0.71 0.74 0.85
0.35 0.47 0.42 0.37 0.25 0.28 0.38 0.39 0.41 0.45 0.45 0.45 0.34 0.30 0.24 0.26 0.27 0.25 0.21 0.20 0.18 0.16 0.17 0.18 0.19 0.21 0.24 0.29 0.35 0.40 0.45 0.50 0.58 0.60 0.62 0.61 0.59 0.63 0.72 0.70 0.67 0.68 0.71 0.79
0.25 0.34 0.46 0.39 0.23 0.30 0.40 0.34 0.37 0.41 0.41 0.41 0.46 0.38 0.25 0.23 0.22 0.21 0.19 0.16 0.14 0.12 0.12 0.12 0.12 0.14 0.16 0.19 0.24 0.29 0.33 0.37 0.44 0.53 0.57 0.60 0.63 0.65 0.71 0.73 0.72 0.77 0.83 0.89
0.19 0.29 0.49 0.40 0.26 0.33 0.27 0.18 0.23 0.32 0.32 0.29 0.33 0.28 0.23 0.21 0.19 0.19 0.18 0.14 0.11 0.11 0.12 0.14 0.14 0.14 0.14 0.15 0.16 0.19 0.24 0.29 0.34 0.39 0.48 0.52 0.57 0.60 0.63 0.70 0.75 0.81 0.85 0.91
0.13 0.31 0.53 0.42 0.28 0.20 0.17 0.17 0.23 0.32 0.36 0.27 0.24 0.20 0.19 0.17 0.15 0.17 0.15 0.14 0.13 0.11 0.11 0.12 0.12 0.13 0.13 0.13 0.14 0.16 0.20 0.26 0.30 0.37 0.45 0.50 0.58 0.61 0.64 0.71 0.73 0.78 0.84 0.87
0.14 0.26 0.51 0.42 0.34 0.23 0.17 0.11 0.13 0.25 0.41 0.23 0.19 0.17 0.17 0.15 0.20 0.18 0.13 0.12 0.13 0.11 0.10 0.12 0.12 0.13 0.15 0.17 0.19 0.20 0.24 0.28 0.31 0.37 0.45 0.48 0.56 0.66 0.69 0.72 0.71 0.69 0.74 0.80
0.23 0.33 0.42 0.35 0.30 0.14 0.10 0.07 0.10 0.30 0.41 0.20 0.16 0.15 0.14 0.14 0.18 0.15 0.12 0.11 0.11 0.12 0.11 0.11 0.13 0.15 0.19 0.24 0.27 0.27 0.31 0.35 0.36 0.38 0.42 0.42 0.46 0.53 0.56 0.58 0.59 0.59 0.61 0.63
0.13 0.17 0.16 0.17 0.23 0.16 0.10 0.09 0.18 0.22 0.13 0.10 0.09 0.10 0.10 0.13 0.13 0.14 0.13 0.12 0.11 0.15 0.14 0.13 0.15 0.16 0.18 0.26 0.32 0.32 0.31 0.33 0.32 0.33 0.36 0.38 0.40 0.44 0.45 0.47 0.50 0.52 0.50 0.50
0.09 0.12 0.13 0.12 0.14 0.13 0.11 0.13 0.14 0.11 0.08 0.07 0.07 0.08 0.08 0.12 0.13 0.14 0.14 0.11 0.10 0.13 0.14 0.13 0.14 0.15 0.16 0.20 0.26 0.33 0.33 0.32 0.31 0.32 0.35 0.35 0.34 0.36 0.39 0.40 0.41 0.42 0.41 0.40
0.09 0.07 0.09 0.11 0.10 0.09 0.10 0.10 0.10 0.10 0.08 0.07 0.06 0.05 0.05 0.08 0.11 0.13 0.13 0.12 0.11 0.11 0.13 0.13 0.13 0.14 0.17 0.19 0.20 0.24 0.27 0.27 0.28 0.29 0.30 0.32 0.33 0.31 0.31 0.32 0.35 0.38 0.39 0.39
0.10 0.09 0.10 0.14 0.10 0.09 0.09 0.09 0.07 0.07 0.06 0.05 0.04 0.04 0.05 0.08 0.10 0.12 0.14 0.14 0.13 0.14 0.13 0.15 0.14 0.15 0.16 0.16 0.17 0.17 0.18 0.20 0.23 0.26 0.26 0.26 0.28 0.29 0.29 0.28 0.31 0.35 0.37 0.42
0.09 0.09 0.12 0.14 0.09 0.10 0.10 0.07 0.06 0.05 0.05 0.04 0.04 0.04 0.05 0.07 0.08 0.08 0.08 0.11 0.14 0.14 0.14 0.15 0.14 0.14 0.15 0.15 0.15 0.16 0.16 0.17 0.20 0.22 0.23 0.24 0.25 0.26 0.26 0.26 0.26 0.30 0.33 0.38

GEFSCGP_prec_meanprecacc_168.txt.gz
Total_Precipitation_Accumulation
1.72 1.93 1.54 0.88 0.68 0.59 0.47 0.39 0.35 0.36 0.36 0.40 0.39 0.44 0.47 0.44 0.44 0.51 0.61 0.67 0.72 0.70 0.76 0.99 1.22 1.47 1.77 2.13 2.30 2.27 2.22 2.38 2.59 2.43 2.21 2.01 1.80 1.63 1.45 1.29 1.17 1.10 1.00 0.91
1.65 1.41 0.85 0.61 0.64 0.66 0.61 0.53 0.44 0.42 0.39 0.44 0.42 0.45 0.44 0.45 0.44 0.50 0.59 0.65 0.65 0.59 0.68 0.91 1.12 1.35 1.53 1.96 2.22 2.24 2.30 2.43 2.59 2.47 2.33 2.29 2.22 2.01 1.82 1.68 1.41 1.22 1.11 1.02
1.21 0.86 0.70 0.84 0.86 0.79 0.70 0.61 0.49 0.48 0.50 0.47 0.45 0.49 0.40 0.39 0.39 0.43 0.56 0.62 0.59 0.56 0.64 0.79 0.97 1.17 1.26 1.53 1.91 2.08 2.14 2.29 2.41 2.55 2.80 2.80 2.70 2.36 1.92 1.63 1.53 1.43 1.39 1.29
1.02 0.71 0.83 1.06 1.01 0.79 0.71 0.49 0.49 0.50 0.62 0.63 0.49 0.61 0.43 0.38 0.41 0.43 0.55 0.60 0.58 0.57 0.62 0.74 0.85 0.96 1.08 1.21 1.55 1.90 2.09 2.23 2.25 2.32 2.55 2.65 2.52 2.18 1.83 1.62 1.63 1.68 1.63 1.59
1.00 0.73 0.89 1.13 0.93 0.75 0.65 0.45 0.54 0.61 0.68 0.68 0.47 0.55 0.47 0.40 0.46 0.49 0.55 0.61 0.61 0.61 0.65 0.72 0.76 0.80 0.88 1.03 1.35 1.67 1.90 2.12 2.16 2.09 2.19 2.40 2.48 2.35 2.19 2.01 1.88 1.81 1.75 1.64
0.74 0.73 0.92 0.98 0.83 0.80 0.72 0.74 0.84 0.91 1.10 1.07 0.47 0.46 0.43 0.43 0.54 0.53 0.52 0.62 0.67 0.71 0.73 0.73 0.74 0.74 0.80 0.87 1.03 1.34 1.62 1.93 2.11 2.06 2.09 2.17 2.22 2.29 2.21 2.06 2.02 1.93 1.90 1.77
1.00 0.97 0.92 0.98 1.19 1.14 1.13 1.49 1.82 1.77 1.56 0.90 0.28 0.31 0.43 0.41 0.47 0.50 0.53 0.61 0.65 0.66 0.66 0.64 0.63 0.63 0.73 0.83 0.89 1.09 1.25 1.51 1.78 1.91 1.95 1.98 2.06 2.11 2.15 2.12 2.09 2.07 1.93 1.77
1.09 1.16 0.89 0.95 1.26 1.30 1.13 1.33 1.40 1.19 0.79 0.41 0.22 0.34 0.43 0.37 0.40 0.44 0.49 0.57 0.65 0.70 0.69 0.66 0.62 0.66 0.77 0.80 0.87 0.98 1.08 1.20 1.42 1.62 1.69 1.73 1.85 1.93 1.90 1.97 1.96 1.91 1.84 1.75
0.82 0.90 0.70 0.74 0.89 1.01 1.07 0.98 0.77 0.93 0.67 0.45 0.32 0.28 0.32 0.32 0.36 0.40 0.42 0.48 0.59 0.64 0.62 0.65 0.66 0.69 0.74 0.78 0.83 0.91 1.00 1.02 1.13 1.31 1.44 1.55 1.59 1.61 1.56 1.58 1.60 1.63 1.65 1.64
0.75 0.87 0.75 0.79 0.99 1.03 0.95 0.80 0.86 1.13 0.93 0.63 0.32 0.25 0.38 0.39 0.40 0.41 0.42 0.44 0.53 0.59 0.62 0.65 0.68 0.66 0.67 0.71 0.74 0.82 0.86 0.86 0.91 1.01 1.08 1.24 1.34 1.35 1.38 1.39 1.36 1.34 1.33 1.35
0.64 0.86 0.96 0.95 1.05 0.84 0.73 0.83 0.91 0.91 0.72 0.73 0.48 0.36 0.37 0.40 0.42 0.43 0.47 0.48 0.53 0.57 0.64 0.69 0.72 0.70 0.68 0.72 0.74 0.76 0.72 0.73 0.77 0.84 0.88 0.94 1.05 1.13 1.19 1.20 1.13 1.14 1.10 1.07
0.50 0.72 0.92 0.75 0.56 0.51 0.56 0.57 0.70 0.95 0.72 0.60 0.55 0.38 0.27 0.32 0.36 0.41 0.49 0.49 0.49 0.52 0.57 0.62 0.69 0.69 0.68 0.71 0.73 0.76 0.70 0.67 0.69 0.74 0.75 0.78 0.86 0.97 1.02 1.07 1.02 0.96 0.98 0.92
0.54 0.69 0.89 0.78 0.65 0.61 0.58 0.44 0.53 0.77 0.93 0.70 0.63 0.40 0.24 0.28 0.34 0.39 0.46 0.48 0.47 0.48 0.51 0.53 0.55 0.61 0.64 0.66 0.69 0.75 0.73 0.65 0.63 0.64 0.64 0.68 0.74 0.82 0.87 0.89 0.92 0.86 0.89 0.84
0.67 0.62 0.70 0.71 0.56 0.55 0.52 0.42 0.51 0.91 1.09 0.63 0.42 0.34 0.27 0.30 0.33 0.37 0.40 0.42 0.42 0.41 0.39 0.40 0.44 0.49 0.53 0.58 0.63 0.66 0.68 0.68 0.67 0.64 0.59 0.62 0.66 0.77 0.81 0.77 0.80 0.80 0.85 0.88
0.56 0.61 0.47 0.40 0.29 0.33 0.39 0.43 0.51 0.70 0.61 0.58 0.34 0.28 0.30 0.30 0.33 0.35 0.32 0.32 0.29 0.28 0.28 0.30 0.31 0.34 0.40 0.44 0.49 0.53 0.58 0.61 0.65 0.66 0.63 0.61 0.62 0.70 0.76 0.69 0.70 0.72 0.75 0.86
0.35 0.47 0.42 0.37 0.25 0.28 0.38 0.39 0.41 0.45 0.46 0.46 0.34 0.31 0.25 0.27 0.29 0.27 0.23 0.21 0.19 0.18 0.18 0.19 0.20 0.22 0.24 0.29 0.35 0.40 0.45 0.50 0.58 0.61 0.62 0.61 0.60 0.63 0.72 0.70 0.68 0.69 0.72 0.81
0.25 0.34 0.47 0.39 0.23 0.30 0.40 0.34 0.37 0.42 0.41 0.42 0.47 0.38 0.25 0.23 0.23 0.22 0.20 0.17 0.15 0.13 0.13 0.13 0.13 0.15 0.16 0.19 0.24 0.29 0.33 0.38 0.45 0.53 0.58 0.61 0.63 0.66 0.72 0.73 0.73 0.77 0.84 0.90
0.19 0.29 0.49 0.40 0.26 0.33 0.27 0.18 0.23 0.32 0.32 0.29 0.33 0.28 0.23 0.21 0.20 0.20 0.19 0.16 0.12 0.11 0.12 0.14 0.14 0.14 0.14 0.16 0.17 0.19 0.24 0.30 0.34 0.40 0.48 0.52 0.57 0.60 0.63 0.70 0.76 0.81 0.86 0.92
0.13 0.31 0.54 0.43 0.28 0.20 0.17 0.17 0.23 0.32 0.36 0.27 0.24 0.20 0.20 0.18 0.15 0.17 0.16 0.15 0.14 0.11 0.11 0.12 0.12 0.13 0.14 0.14 0.14 0.16 0.21 0.27 0.31 0.38 0.45 0.50 0.58 0.61 0.65 0.71 0.74 0.78 0.84 0.88
0.15 0.27 0.52 0.43 0.35 0.23 0.17 0.11 0.13 0.26 0.41 0.23 0.19 0.17 0.18 0.16 0.20 0.18 0.13 0.13 0.14 0.12 0.11 0.12 0.12 0.13 0.15 0.17 0.19 0.21 0.24 0.28 0.31 0.38 0.46 0.49 0.57 0.67 0.70 0.73 0.72 0.70 0.75 0.81
0.23 0.34 0.43 0.36 0.31 0.14 0.10 0.07 0.10 0.31 0.41 0.20 0.16 0.15 0.14 0.14 0.18 0.15 0.12 0.11 0.11 0.12 0.11 0.12 0.13 0.15 0.19 0.25 0.27 0.28 0.31 0.35 0.37 0.38 0.43 0.43 0.47 0.54 0.57 0.59 0.60 0.60 0.62 0.64
0.13 0.17 0.16 0.17 0.24 0.17 0.10 0.09 0.18 0.22 0.14 0.10 0.09 0.10 0.10 0.13 0.13 0.14 0.13 0.12 0.12 0.15 0.15 0.14 0.15 0.17 0.19 0.26 0.32 0.33 0.32 0.34 0.33 0.33 0.37 0.38 0.41 0.44 0.46 0.48 0.51 0.53 0.51 0.51
0.09 0.12 0.13 0.12 0.14 0.13 0.11 0.13 0.14 0.11 0.08 0.07 0.07 0.08 0.08 0.12 0.13 0.14 0.14 0.11 0.10 0.13 0.15 0.14 0.14 0.15 0.17 0.20 0.27 0.34 0.34 0.32 0.32 0.33 0.35 0.35 0.34 0.36 0.40 0.40 0.42 0.43 0.41 0.41
0.09 0.07 0.10 0.12 0.10 0.09 0.10 0.10 0.10 0.10 0.08 0.07 0.06 0.05 0.05 0.09 0.11 0.13 0.13 0.12 0.11 0.11 0.13 0.13 0.13 0.15 0.17 0.19 0.20 0.24 0.27 0.28 0.29 0.29 0.30 0.33 0.34 0.32 0.31 0.33 0.35 0.38 0.39 0.39
0.10 0.09 0.10 0.14 0.10 0.09 0.09 0.09 0.08 0.07 0.06 0.05 0.04 0.04 0.05 0.08 0.10 0.12 0.14 0.14 0.13 0.14 0.13 0.15 0.14 0.15 0.16 0.16 0.17 0.17 0.18 0.20 0.23 0.26 0.26 0.27 0.28 0.29 0.29 0.28 0.31 0.35 0.37 0.42
0.09 0.09 0.13 0.14 0.09 0.10 0.10 0.07 0.06 0.05 0.05 0.04 0.04 0.04 0.05 0.07 0.08 0.08 0.08 0.11 0.14 0.14 0.14 0.15 0.14 0.14 0.15 0.15 0.16 0.16 0.16 0.18 0.20 0.22 0.23 0.25 0.26 0.26 0.26 0.27 0.26 0.30 0.33 0.38

GEFSCGP_prec_meanprecacc_174.txt.gz
Total_Precipitation_Accumulation
1.74 1.96 1.57 0.90 0.70 0.61 0.48 0.40 0.35 0.37 0.36 0.41 0.40 0.45 0.48 0.45 0.45 0.53 0.63 0.69 0.73 0.71 0.76 0.99 1.22 1.48 1.79 2.18 2.36 2.33 2.27 2.41 2.61 2.44 2.22 2.02 1.81 1.64 1.48 1.33 1.20 1.12 1.01 0.92
1.67 1.43 0.87 0.63 0.66 0.69 0.62 0.54 0.45 0.43 0.39 0.45 0.43 0.46 0.45 0.47 0.47 0.51 0.60 0.66 0.66 0.60 0.69 0.92 1.12 1.35 1.55 2.00 2.27 2.29 2.34 2.45 2.61 2.48 2.34 2.29 2.23 2.02 1.83 1.70 1.43 1.24 1.12 1.03
1.23 0.88 0.71 0.85 0.88 0.82 0.72 0.61 0.49 0.48 0.50 0.48 0.46 0.50 0.41 0.41 0.43 0.44 0.56 0.63 0.61 0.57 0.64 0.80 0.97 1.18 1.28 1.56 1.94 2.11 2.16 2.31 2.42 2.56 2.81 2.81 2.70 2.36 1.92 1.63 1.53 1.44 1.40 1.30
1.02 0.72 0.84 1.07 1.02 0.80 0.73 0.50 0.49 0.50 0.63 0.64 0.49 0.62 0.43 0.39 0.43 0.44 0.56 0.62 0.61 0.59 0.62 0.74 0.86 0.97 1.10 1.24 1.57 1.92 2.11 2.23 2.25 2.33 2.56 2.66 2.52 2.18 1.83 1.62 1.63 1.68 1.63 1.59
1.01 0.74 0.90 1.14 0.94 0.76 0.65 0.46 0.55 0.62 0.69 0.69 0.48 0.56 0.47 0.40 0.47 0.50 0.56 0.63 0.64 0.64 0.67 0.72 0.77 0.81 0.89 1.04 1.36 1.68 1.91 2.13 2.16 2.10 2.19 2.40 2.48 2.35 2.19 2.01 1.89 1.81 1.75 1.65
0.74 0.73 0.94 1.00 0.84 0.81 0.73 0.74 0.85 0.92 1.11 1.07 0.48 0.47 0.43 0.44 0.54 0.54 0.54 0.64 0.70 0.74 0.74 0.74 0.75 0.75 0.81 0.88 1.04 1.34 1.62 1.93 2.11 2.06 2.09 2.17 2.22 2.29 2.21 2.06 2.03 1.93 1.90 1.78
1.00 0.98 0.93 0.99 1.20 1.15 1.14 1.50 1.84 1.79 1.57 0.91 0.28 0.31 0.43 0.41 0.47 0.51 0.54 0.62 0.67 0.68 0.67 0.65 0.64 0.64 0.74 0.83 0.89 1.09 1.25 1.51 1.78 1.91 1.95 1.98 2.06 2.11 2.15 2.13 2.09 2.07 1.93 1.78
1.10 1.18 0.90 0.96 1.27 1.31 1.15 1.34 1.43 1.22 0.80 0.42 0.23 0.35 0.43 0.38 0.40 0.44 0.49 0.57 0.66 0.71 0.70 0.66 0.63 0.66 0.77 0.81 0.87 0.98 1.08 1.20 1.42 1.62 1.70 1.73 1.86 1.94 1.91 1.98 1.96 1.92 1.85 1.76
0.83 0.91 0.71 0.74 0.89 1.01 1.08 0.99 0.77 0.94 0.68 0.46 0.32 0.29 0.32 0.32 0.36 0.41 0.42 0.48 0.59 0.64 0.63 0.65 0.66 0.69 0.75 0.78 0.83 0.92 1.00 1.02 1.13 1.31 1.45 1.56 1.60 1.62 1.58 1.59 1.61 1.64 1.66 1.66
0.75 0.88 0.76 0.79 1.00 1.03 0.95 0.81 0.87 1.14 0.94 0.65 0.33 0.26 0.39 0.39 0.40 0.41 0.42 0.44 0.53 0.60 0.62 0.65 0.68 0.66 0.67 0.71 0.75 0.83 0.86 0.86 0.91 1.01 1.09 1.26 1.36 1.36 1.39 1.40 1.37 1.35 1.34 1.37
0.64 0.87 0.96 0.95 1.05 0.85 0.74 0.84 0.92 0.93 0.74 0.75 0.50 0.37 0.37 0.40 0.42 0.43 0.47 0.48 0.54 0.57 0.64 0.69 0.72 0.70 0.68 0.72 0.74 0.76 0.72 0.74 0.77 0.84 0.89 0.95 1.07 1.14 1.19 1.21 1.14 1.15 1.11 1.08
0.50 0.73 0.92 0.76 0.57 0.51 0.56 0.57 0.71 0.96 0.73 0.60 0.56 0.38 0.27 0.32 0.36 0.42 0.49 0.49 0.50 0.53 0.57 0.62 0.69 0.69 0.68 0.71 0.74 0.77 0.70 0.67 0.69 0.75 0.76 0.78 0.87 0.98 1.03 1.08 1.02 0.97 0.98 0.92
0.55 0.70 0.89 0.79 0.66 0.61 0.59 0.45 0.54 0.78 0.94 0.71 0.64 0.40 0.25 0.28 0.34 0.40 0.46 0.48 0.48 0.49 0.51 0.53 0.55 0.61 0.64 0.66 0.69 0.75 0.73 0.66 0.63 0.64 0.64 0.69 0.75 0.83 0.88 0.89 0.92 0.86 0.90 0.84
0.67 0.63 0.71 0.72 0.57 0.55 0.52 0.42 0.52 0.92 1.09 0.63 0.42 0.34 0.27 0.30 0.33 0.37 0.40 0.43 0.43 0.42 0.40 0.40 0.44 0.49 0.54 0.58 0.63 0.66 0.69 0.68 0.68 0.64 0.60 0.62 0.66 0.77 0.81 0.77 0.80 0.80 0.85 0.88
0.57 0.61 0.47 0.41 0.29 0.33 0.39 0.43 0.51 0.70 0.62 0.58 0.34 0.29 0.30 0.31 0.34 0.36 0.34 0.33 0.31 0.30 0.29 0.31 0.33 0.35 0.41 0.45 0.49 0.54 0.58 0.61 0.65 0.66 0.63 0.61 0.62 0.70 0.76 0.69 0.70 0.72 0.75 0.86
0.36 0.47 0.42 0.37 0.25 0.28 0.38 0.39 0.41 0.45 0.46 0.46 0.34 0.31 0.25 0.27 0.29 0.29 0.25 0.23 0.21 0.20 0.20 0.20 0.21 0.23 0.25 0.30 0.35 0.40 0.45 0.50 0.58 0.61 0.62 0.61 0.60 0.63 0.72 0.70 0.68 0.69 0.72 0.81
0.25 0.34 0.47 0.39 0.23 0.30 0.40 0.34 0.37 0.42 0.41 0.42 0.47 0.39 0.25 0.24 0.24 0.23 0.21 0.18 0.17 0.15 0.14 0.14 0.14 0.15 0.17 0.20 0.24 0.29 0.33 0.38 0.45 0.53 0.58 0.61 0.63 0.66 0.72 0.73 0.73 0.78 0.84 0.90
0.20 0.30 0.50 0.40 0.26 0.33 0.27 0.18 0.23 0.32 0.32 0.29 0.33 0.28 0.23 0.22 0.21 0.20 0.19 0.16 0.13 0.12 0.13 0.15 0.15 0.15 0.15 0.16 0.17 0.19 0.24 0.30 0.35 0.40 0.48 0.52 0.57 0.61 0.64 0.71 0.76 0.81 0.86 0.92
0.13 0.33 0.56 0.43 0.29 0.20 0.17 0.17 0.23 0.32 0.36 0.27 0.24 0.20 0.20 0.18 0.16 0.17 0.16 0.15 0.14 0.12 0.12 0.13 0.13 0.13 0.14 0.14 0.15 0.17 0.21 0.27 0.31 0.38 0.46 0.51 0.59 0.62 0.65 0.72 0.74 0.78 0.85 0.88
0.15 0.28 0.53 0.44 0.36 0.23 0.17 0.11 0.13 0.26 0.41 0.23 0.19 0.17 0.18 0.16 0.21 0.19 0.13 0.13 0.14 0.12 0.11 0.12 0.12 0.14 0.15 0.17 0.19 0.21 0.25 0.29 0.32 0.39 0.46 0.49 0.58 0.67 0.71 0.73 0.72 0.70 0.75 0.81
0.23 0.35 0.44 0.37 0.32 0.14 0.10 0.07 0.10 0.31 0.42 0.20 0.16 0.15 0.15 0.14 0.19 0.15 0.12 0.11 0.11 0.12 0.12 0.12 0.13 0.15 0.20 0.25 0.27 0.28 0.32 0.36 0.38 0.39 0.44 0.44 0.48 0.54 0.58 0.60 0.61 0.62 0.63 0.65
0.13 0.18 0.17 0.18 0.25 0.17 0.10 0.09 0.18 0.22 0.14 0.10 0.10 0.10 0.11 0.13 0.13 0.14 0.13 0.12 0.12 0.15 0.15 0.14 0.16 0.17 0.19 0.26 0.33 0.34 0.33 0.34 0.34 0.34 0.38 0.39 0.42 0.45 0.47 0.49 0.52 0.54 0.52 0.52
0.09 0.12 0.13 0.12 0.14 0.13 0.11 0.13 0.14 0.11 0.08 0.07 0.07 0.08 0.08 0.12 0.13 0.14 0.14 0.11 0.10 0.13 0.15 0.14 0.14 0.15 0.17 0.21 0.27 0.34 0.34 0.33 0.32 0.33 0.36 0.35 0.35 0.36 0.40 0.41 0.43 0.43 0.42 0.41
0.09 0.07 0.10 0.12 0.10 0.09 0.10 0.10 0.10 0.10 0.09 0.07 0.06 0.05 0.05 0.09 0.11 0.13 0.13 0.12 0.11 0.11 0.13 0.14 0.13 0.15 0.18 0.19 0.21 0.25 0.27 0.28 0.29 0.29 0.31 0.33 0.34 0.32 0.31 0.33 0.36 0.38 0.39 0.39
0.10 0.09 0.10 0.14 0.10 0.09 0.09 0.09 0.08 0.07 0.06 0.05 0.04 0.04 0.05 0.08 0.10 0.12 0.14 0.14 0.13 0.14 0.13 0.15 0.14 0.15 0.16 0.16 0.17 0.17 0.18 0.20 0.24 0.26 0.27 0.27 0.28 0.29 0.29 0.28 0.31 0.35 0.37 0.42
0.09 0.09 0.13 0.14 0.09 0.10 0.10 0.07 0.06 0.05 0.05 0.04 0.04 0.04 0.05 0.07 0.08 0.08 0.09 0.11 0.14 0.14 0.14 0.15 0.14 0.14 0.15 0.15 0.16 0.16 0.16 0.18 0.20 0.22 0.24 0.25 0.26 0.26 0.27 0.27 0.27 0.30 0.33 0.38

GEFSCGP_prec_meanprecacc_180.txt.gz
Total_Precipitation_Accumulation
1.76 1.98 1.59 0.92 0.72 0.63 0.50 0.41 0.36 0.37 0.37 0.42 0.41 0.45 0.48 0.45 0.45 0.53 0.65 0.71 0.74 0.72 0.77 1.01 1.25 1.50 1.81 2.22 2.41 2.40 2.34 2.49 2.71 2.58 2.35 2.12 1.87 1.69 1.52 1.36 1.23 1.14 1.05 0.96
1.69 1.43 0.88 0.64 0.68 0.71 0.64 0.56 0.46 0.43 0.40 0.46 0.44 0.46 0.45 0.47 0.47 0.51 0.60 0.67 0.67 0.61 0.70 0.93 1.14 1.37 1.56 2.03 2.31 2.34 2.40 2.53 2.69 2.59 2.46 2.38 2.30 2.07 1.87 1.73 1.46 1.26 1.15 1.06
1.25 0.88 0.72 0.86 0.89 0.83 0.73 0.62 0.50 0.49 0.53 0.49 0.46 0.50 0.41 0.41 0.43 0.44 0.56 0.64 0.61 0.57 0.65 0.81 0.98 1.19 1.29 1.58 1.97 2.14 2.20 2.37 2.49 2.65 2.91 2.89 2.77 2.42 1.96 1.67 1.56 1.46 1.42 1.32
1.03 0.72 0.85 1.08 1.03 0.81 0.74 0.51 0.50 0.50 0.64 0.65 0.50 0.63 0.43 0.39 0.43 0.44 0.56 0.62 0.62 0.59 0.63 0.75 0.87 0.98 1.11 1.25 1.59 1.94 2.14 2.27 2.31 2.39 2.64 2.74 2.59 2.24 1.88 1.65 1.65 1.70 1.64 1.60
1.01 0.74 0.90 1.14 0.95 0.77 0.66 0.46 0.56 0.62 0.69 0.69 0.48 0.57 0.48 0.40 0.47 0.50 0.56 0.64 0.65 0.64 0.67 0.73 0.78 0.83 0.90 1.05 1.37 1.69 1.93 2.16 2.20 2.14 2.24 2.47 2.55 2.41 2.23 2.04 1.90 1.82 1.76 1.65
0.75 0.74 0.94 1.00 0.85 0.82 0.74 0.76 0.87 0.94 1.12 1.08 0.48 0.47 0.44 0.44 0.54 0.55 0.55 0.64 0.70 0.74 0.75 0.75 0.75 0.76 0.82 0.89 1.05 1.35 1.63 1.95 2.14 2.09 2.12 2.21 2.27 2.34 2.25 2.09 2.05 1.94 1.91 1.79
1.01 0.98 0.93 0.99 1.21 1.16 1.15 1.53 1.87 1.81 1.58 0.92 0.28 0.31 0.45 0.42 0.48 0.51 0.54 0.63 0.68 0.68 0.68 0.65 0.64 0.64 0.75 0.84 0.90 1.10 1.26 1.52 1.80 1.94 1.98 2.00 2.08 2.13 2.17 2.15 2.11 2.08 1.94 1.78
1.12 1.19 0.90 0.97 1.28 1.32 1.15 1.36 1.45 1.25 0.82 0.42 0.23 0.35 0.44 0.38 0.40 0.45 0.49 0.57 0.67 0.72 0.71 0.67 0.63 0.67 0.78 0.81 0.88 0.99 1.09 1.21 1.43 1.63 1.71 1.75 1.88 1.94 1.91 1.99 1.97 1.92 1.85 1.76
0.83 0.91 0.71 0.75 0.90 1.02 1.10 1.00 0.78 0.95 0.70 0.48 0.33 0.30 0.33 0.32 0.36 0.41 0.42 0.48 0.59 0.65 0.64 0.65 0.66 0.70 0.75 0.79 0.84 0.92 1.00 1.03 1.13 1.32 1.45 1.57 1.62 1.64 1.58 1.59 1.61 1.64 1.66 1.66
0.75 0.88 0.76 0.79 1.00 1.04 0.96 0.82 0.88 1.15 0.96 0.69 0.36 0.27 0.40 0.40 0.40 0.41 0.42 0.45 0.53 0.60 0.63 0.65 0.68 0.66 0.67 0.71 0.75 0.83 0.87 0.86 0.92 1.02 1.09 1.26 1.36 1.37 1.40 1.40 1.37 1.35 1.34 1.37
0.64 0.87 0.96 0.95 1.06 0.86 0.75 0.85 0.92 0.93 0.75 0.78 0.51 0.38 0.38 0.40 0.42 0.43 0.47 0.48 0.54 0.57 0.64 0.69 0.72 0.70 0.68 0.72 0.75 0.76 0.72 0.74 0.77 0.85 0.89 0.95 1.07 1.14 1.20 1.21 1.14 1.15 1.11 1.08
0.50 0.73 0.92 0.76 0.57 0.51 0.57 0.58 0.72 0.97 0.74 0.61 0.56 0.38 0.27 0.32 0.36 0.42 0.49 0.49 0.50 0.53 0.58 0.63 0.69 0.69 0.68 0.71 0.74 0.77 0.70 0.68 0.70 0.75 0.76 0.79 0.87 0.99 1.03 1.08 1.02 0.97 0.99 0.93
0.55 0.70 0.90 0.79 0.67 0.61 0.59 0.45 0.54 0.78 0.94 0.71 0.64 0.40 0.25 0.28 0.34 0.40 0.46 0.48 0.48 0.49 0.51 0.53 0.56 0.61 0.64 0.66 0.69 0.75 0.74 0.66 0.63 0.65 0.65 0.69 0.75 0.83 0.88 0.89 0.92 0.87 0.90 0.85
0.67 0.63 0.71 0.73 0.58 0.56 0.53 0.42 0.52 0.92 1.10 0.63 0.42 0.34 0.27 0.30 0.33 0.37 0.40 0.43 0.43 0.42 0.40 0.41 0.45 0.50 0.54 0.59 0.63 0.66 0.69 0.68 0.68 0.65 0.60 0.63 0.67 0.78 0.82 0.78 0.81 0.81 0.86 0.88
0.57 0.61 0.47 0.41 0.30 0.33 0.39 0.43 0.51 0.70 0.62 0.58 0.34 0.29 0.30 0.31 0.34 0.36 0.34 0.33 0.31 0.30 0.30 0.32 0.33 0.36 0.41 0.45 0.49 0.54 0.58 0.61 0.66 0.67 0.64 0.62 0.62 0.70 0.76 0.69 0.70 0.72 0.75 0.86
0.36 0.48 0.42 0.37 0.25 0.28 0.38 0.39 0.41 0.46 0.46 0.46 0.34 0.31 0.25 0.27 0.29 0.29 0.25 0.23 0.21 0.20 0.21 0.21 0.22 0.23 0.25 0.30 0.35 0.41 0.46 0.51 0.59 0.61 0.63 0.62 0.60 0.63 0.72 0.70 0.68 0.69 0.72 0.81
0.25 0.35 0.48 0.39 0.23 0.30 0.40 0.34 0.37 0.42 0.41 0.42 0.47 0.39 0.26 0.24 0.24 0.23 0.22 0.19 0.17 0.15 0.15 0.15 0.15 0.16 0.17 0.20 0.25 0.29 0.34 0.38 0.45 0.53 0.58 0.61 0.64 0.66 0.72 0.73 0.73 0.78 0.84 0.90
0.20 0.30 0.51 0.41 0.27 0.33 0.28 0.18 0.24 0.32 0.32 0.29 0.33 0.28 0.23 0.22 0.21 0.21 0.20 0.17 0.14 0.12 0.14 0.16 0.15 0.16 0.16 0.16 0.17 0.19 0.25 0.31 0.35 0.41 0.49 0.53 0.58 0.61 0.64 0.71 0.76 0.82 0.86 0.92
0.14 0.33 0.57 0.44 0.29 0.20 0.17 0.17 0.23 0.32 0.36 0.27 0.24 0.20 0.20 0.18 0.16 0.18 0.16 0.16 0.15 0.12 0.13 0.14 0.13 0.14 0.14 0.14 0.15 0.17 0.21 0.28 0.32 0.39 0.46 0.51 0.59 0.62 0.65 0.72 0.74 0.78 0.85 0.88
0.15 0.28 0.54 0.45 0.36 0.24 0.18 0.11 0.13 0.26 0.42 0.23 0.19 0.17 0.18 0.16 0.21 0.19 0.14 0.13 0.15 0.13 0.11 0.13 0.13 0.14 0.15 0.17 0.19 0.21 0.25 0.29 0.32 0.39 0.47 0.50 0.58 0.68 0.71 0.74 0.72 0.71 0.76 0.82
0.24 0.35 0.44 0.38 0.33 0.15 0.10 0.07 0.10 0.31 0.42 0.20 0.16 0.16 0.15 0.15 0.19 0.16 0.12 0.12 0.12 0.13 0.12 0.12 0.14 0.16 0.20 0.25 0.28 0.29 0.32 0.36 0.38 0.39 0.44 0.44 0.49 0.55 0.58 0.61 0.62 0.62 0.63 0.65
0.13 0.18 0.17 0.18 0.26 0.18 0.10 0.09 0.18 0.23 0.14 0.11 0.10 0.10 0.11 0.13 0.13 0.14 0.13 0.12 0.12 0.15 0.15 0.14 0.16 0.17 0.19 0.26 0.33 0.34 0.33 0.34 0.34 0.34 0.38 0.40 0.42 0.46 0.48 0.50 0.53 0.55 0.53 0.53
0.09 0.12 0.14 0.12 0.14 0.13 0.11 0.13 0.14 0.11 0.08 0.07 0.07 0.08 0.08 0.12 0.13 0.14 0.14 0.11 0.10 0.14 0.15 0.14 0.15 0.15 0.17 0.21 0.27 0.34 0.34 0.33 0.32 0.34 0.36 0.36 0.35 0.37 0.41 0.41 0.43 0.44 0.43 0.42
0.09 0.07 0.10 0.12 0.10 0.09 0.10 0.10 0.10 0.10 0.09 0.07 0.06 0.05 0.05 0.09 0.11 0.13 0.13 0.12 0.11 0.11 0.13 0.14 0.13 0.15 0.18 0.19 0.21 0.25 0.28 0.28 0.29 0.30 0.31 0.33 0.34 0.32 0.32 0.33 0.36 0.39 0.40 0.40
0.10 0.09 0.10 0.14 0.10 0.09 0.09 0.09 0.08 0.07 0.06 0.05 0.04 0.04 0.05 0.08 0.10 0.12 0.14 0.14 0.13 0.14 0.13 0.15 0.14 0.15 0.16 0.16 0.17 0.17 0.18 0.20 0.24 0.27 0.27 0.27 0.29 0.30 0.29 0.28 0.31 0.36 0.37 0.43
0.09 0.09 0.13 0.14 0.09 0.10 0.10 0.07 0.06 0.05 0.05 0.04 0.04 0.04 0.05 0.07 0.08 0.08 0.09 0.11 0.14 0.14 0.14 0.15 0.14 0.14 0.15 0.15 0.16 0.16 0.16 0.18 0.20 0.23 0.24 0.25 0.26 0.26 0.27 0.27 0.27 0.31 0.34 0.39

GEFSCGP_prec_meanprecacc_186.txt.gz
Total_Precipitation_Accumulation
1.76 1.98 1.59 0.92 0.72 0.64 0.52 0.44 0.39 0.39 0.38 0.45 0.44 0.48 0.49 0.47 0.48 0.56 0.66 0.72 0.75 0.72 0.78 1.02 1.26 1.51 1.82 2.23 2.42 2.42 2.39 2.58 2.82 2.66 2.42 2.22 1.98 1.76 1.57 1.41 1.30 1.22 1.12 1.01
1.69 1.44 0.88 0.64 0.68 0.71 0.65 0.57 0.47 0.45 0.41 0.48 0.46 0.48 0.46 0.48 0.50 0.54 0.62 0.67 0.67 0.61 0.70 0.93 1.14 1.38 1.57 2.04 2.32 2.36 2.44 2.60 2.80 2.69 2.56 2.48 2.40 2.18 1.95 1.79 1.52 1.33 1.23 1.12
1.25 0.89 0.72 0.86 0.90 0.83 0.73 0.63 0.51 0.50 0.54 0.51 0.48 0.51 0.41 0.42 0.45 0.46 0.58 0.64 0.62 0.57 0.65 0.81 0.99 1.21 1.31 1.60 1.99 2.17 2.23 2.41 2.56 2.74 3.01 3.01 2.89 2.53 2.08 1.76 1.64 1.53 1.48 1.39
1.05 0.73 0.85 1.08 1.03 0.82 0.74 0.51 0.50 0.51 0.65 0.67 0.52 0.65 0.44 0.39 0.43 0.45 0.56 0.63 0.62 0.59 0.63 0.75 0.88 1.00 1.13 1.28 1.62 1.98 2.17 2.31 2.35 2.46 2.72 2.83 2.70 2.35 2.00 1.78 1.74 1.78 1.72 1.67
1.02 0.75 0.90 1.15 0.95 0.77 0.67 0.46 0.56 0.62 0.70 0.70 0.49 0.58 0.49 0.40 0.48 0.50 0.57 0.64 0.65 0.64 0.67 0.74 0.79 0.84 0.91 1.08 1.41 1.73 1.97 2.20 2.24 2.20 2.32 2.55 2.63 2.49 2.31 2.14 2.01 1.91 1.83 1.72
0.76 0.74 0.94 1.00 0.85 0.82 0.74 0.76 0.87 0.94 1.13 1.09 0.48 0.48 0.45 0.44 0.55 0.55 0.55 0.64 0.70 0.74 0.75 0.76 0.76 0.77 0.83 0.91 1.07 1.38 1.67 2.00 2.18 2.14 2.18 2.27 2.33 2.40 2.31 2.14 2.12 2.02 1.98 1.85
1.02 0.99 0.93 0.99 1.21 1.16 1.16 1.54 1.89 1.83 1.60 0.92 0.28 0.32 0.46 0.42 0.48 0.51 0.54 0.63 0.68 0.69 0.68 0.66 0.64 0.65 0.75 0.86 0.93 1.13 1.30 1.56 1.83 1.97 2.01 2.04 2.13 2.18 2.21 2.19 2.16 2.14 1.99 1.84
1.13 1.19 0.90 0.97 1.28 1.33 1.16 1.37 1.47 1.27 0.83 0.43 0.23 0.35 0.45 0.38 0.41 0.45 0.49 0.57 0.67 0.72 0.71 0.67 0.64 0.67 0.78 0.82 0.89 1.00 1.11 1.24 1.46 1.66 1.74 1.78 1.91 1.98 1.94 2.02 2.01 1.98 1.91 1.81
0.84 0.92 0.71 0.75 0.90 1.03 1.11 1.02 0.80 0.97 0.71 0.49 0.34 0.31 0.34 0.32 0.36 0.41 0.43 0.48 0.60 0.65 0.64 0.66 0.66 0.70 0.76 0.79 0.84 0.92 1.01 1.04 1.15 1.33 1.47 1.59 1.64 1.66 1.60 1.61 1.63 1.67 1.71 1.71
0.76 0.88 0.76 0.80 1.00 1.04 0.97 0.83 0.89 1.17 0.97 0.70 0.37 0.29 0.42 0.40 0.41 0.42 0.43 0.45 0.54 0.60 0.63 0.65 0.68 0.66 0.67 0.72 0.75 0.83 0.87 0.86 0.92 1.02 1.11 1.28 1.39 1.39 1.42 1.42 1.39 1.37 1.36 1.40
0.64 0.87 0.97 0.95 1.06 0.86 0.75 0.85 0.93 0.95 0.77 0.79 0.53 0.39 0.39 0.41 0.42 0.44 0.47 0.48 0.54 0.57 0.64 0.69 0.72 0.70 0.68 0.72 0.75 0.76 0.72 0.74 0.78 0.85 0.90 0.96 1.08 1.16 1.21 1.23 1.16 1.16 1.12 1.10
0.50 0.73 0.92 0.76 0.57 0.51 0.57 0.59 0.72 0.98 0.75 0.61 0.57 0.38 0.27 0.32 0.36 0.42 0.49 0.49 0.50 0.53 0.58 0.63 0.69 0.69 0.68 0.71 0.74 0.77 0.70 0.68 0.70 0.76 0.76 0.79 0.87 0.99 1.04 1.09 1.04 0.98 1.00 0.94
0.55 0.70 0.90 0.79 0.67 0.61 0.59 0.45 0.54 0.78 0.95 0.71 0.64 0.40 0.25 0.28 0.34 0.40 0.47 0.48 0.48 0.49 0.51 0.53 0.56 0.61 0.65 0.66 0.69 0.76 0.74 0.66 0.64 0.65 0.65 0.70 0.75 0.84 0.88 0.90 0.93 0.88 0.91 0.85
0.68 0.63 0.71 0.73 0.58 0.56 0.53 0.43 0.52 0.92 1.10 0.64 0.42 0.34 0.27 0.30 0.33 0.37 0.40 0.43 0.43 0.42 0.40 0.41 0.45 0.50 0.54 0.59 0.63 0.66 0.69 0.69 0.68 0.65 0.61 0.63 0.68 0.79 0.82 0.78 0.81 0.81 0.86 0.89
0.57 0.61 0.47 0.41 0.30 0.33 0.39 0.43 0.52 0.70 0.62 0.58 0.34 0.29 0.30 0.31 0.34 0.36 0.34 0.33 0.31 0.30 0.30 0.32 0.33 0.36 0.41 0.45 0.49 0.54 0.59 0.62 0.66 0.67 0.64 0.63 0.63 0.71 0.77 0.70 0.70 0.72 0.75 0.86
0.36 0.48 0.42 0.37 0.25 0.28 0.38 0.39 0.41 0.46 0.46 0.46 0.35 0.31 0.25 0.27 0.29 0.29 0.25 0.23 0.21 0.20 0.21 0.22 0.22 0.24 0.26 0.30 0.35 0.41 0.46 0.51 0.59 0.62 0.63 0.62 0.60 0.64 0.73 0.71 0.68 0.69 0.72 0.81
0.26 0.35 0.49 0.40 0.23 0.30 0.41 0.34 0.38 0.42 0.42 0.43 0.48 0.39 0.26 0.25 0.25 0.23 0.22 0.19 0.17 0.15 0.15 0.15 0.15 0.16 0.17 0.20 0.25 0.29 0.34 0.38 0.46 0.54 0.59 0.61 0.64 0.67 0.73 0.74 0.73 0.78 0.84 0.90
0.20 0.31 0.53 0.42 0.27 0.34 0.28 0.18 0.24 0.32 0.32 0.30 0.33 0.28 0.23 0.22 0.21 0.21 0.20 0.17 0.14 0.12 0.14 0.16 0.16 0.16 0.16 0.16 0.17 0.19 0.25 0.31 0.36 0.41 0.49 0.53 0.59 0.62 0.65 0.72 0.77 0.82 0.86 0.92
0.14 0.34 0.58 0.45 0.30 0.20 0.18 0.17 0.23 0.32 0.36 0.27 0.24 0.20 0.20 0.18 0.16 0.18 0.16 0.16 0.15 0.13 0.13 0.14 0.14 0.14 0.15 0.14 0.15 0.17 0.22 0.28 0.32 0.39 0.47 0.51 0.59 0.63 0.66 0.73 0.76 0.79 0.85 0.89
0.15 0.28 0.56 0.46 0.38 0.24 0.18 0.12 0.13 0.26 0.42 0.23 0.19 0.18 0.18 0.16 0.21 0.19 0.14 0.13 0.15 0.13 0.12 0.13 0.13 0.14 0.16 0.18 0.20 0.22 0.25 0.30 0.33 0.39 0.47 0.50 0.58 0.68 0.72 0.75 0.73 0.72 0.76 0.82
0.24 0.36 0.45 0.39 0.34 0.15 0.10 0.07 0.10 0.31 0.42 0.20 0.16 0.16 0.15 0.15 0.19 0.16 0.13 0.12 0.12 0.13 0.12 0.12 0.14 0.16 0.20 0.25 0.28 0.29 0.32 0.36 0.38 0.40 0.45 0.45 0.49 0.55 0.59 0.62 0.63 0.63 0.64 0.66
0.13 0.18 0.17 0.19 0.27 0.19 0.10 0.09 0.18 0.23 0.14 0.11 0.10 0.10 0.11 0.13 0.14 0.14 0.13 0.12 0.12 0.16 0.15 0.14 0.16 0.18 0.20 0.27 0.33 0.34 0.33 0.34 0.34 0.35 0.38 0.40 0.42 0.46 0.48 0.50 0.53 0.56 0.54 0.54
0.09 0.12 0.14 0.13 0.15 0.13 0.11 0.13 0.14 0.11 0.08 0.07 0.07 0.08 0.08 0.12 0.13 0.14 0.14 0.12 0.11 0.14 0.15 0.14 0.15 0.16 0.17 0.21 0.27 0.34 0.34 0.33 0.33 0.34 0.36 0.36 0.35 0.37 0.41 0.41 0.44 0.45 0.43 0.43
0.09 0.07 0.10 0.12 0.10 0.09 0.10 0.10 0.10 0.10 0.09 0.07 0.06 0.05 0.06 0.09 0.11 0.13 0.13 0.12 0.11 0.11 0.13 0.14 0.13 0.15 0.18 0.19 0.21 0.25 0.28 0.28 0.30 0.30 0.31 0.34 0.34 0.32 0.32 0.34 0.37 0.39 0.40 0.40
0.10 0.09 0.11 0.14 0.11 0.09 0.09 0.09 0.08 0.07 0.06 0.05 0.04 0.04 0.05 0.08 0.11 0.12 0.14 0.14 0.13 0.14 0.14 0.15 0.14 0.15 0.16 0.16 0.17 0.17 0.18 0.20 0.24 0.27 0.27 0.27 0.29 0.30 0.29 0.29 0.31 0.36 0.38 0.43
0.09 0.10 0.13 0.15 0.09 0.10 0.10 0.08 0.06 0.05 0.05 0.04 0.04 0.04 0.05 0.07 0.08 0.08 0.09 0.12 0.14 0.14 0.14 0.15 0.14 0.14 0.15 0.15 0.16 0.16 0.16 0.18 0.20 0.23 0.24 0.25 0.26 0.26 0.27 0.27 0.27 0.31 0.34 0.39

GEFSCGP_prec_meanprecacc_192.txt.gz
Total_Precipitation_Accumulation
1.76 1.98 1.60 0.93 0.73 0.64 0.53 0.45 0.39 0.39 0.39 0.47 0.46 0.50 0.51 0.50 0.50 0.57 0.69 0.75 0.77 0.75 0.82 1.07 1.33 1.56 1.86 2.26 2.45 2.44 2.41 2.60 2.84 2.67 2.44 2.24 2.03 1.80 1.60 1.46 1.37 1.29 1.19 1.09
1.69 1.44 0.88 0.66 0.69 0.72 0.66 0.59 0.48 0.45 0.42 0.50 0.47 0.49 0.48 0.51 0.52 0.55 0.64 0.70 0.69 0.63 0.73 0.96 1.19 1.43 1.61 2.07 2.35 2.38 2.47 2.63 2.84 2.73 2.58 2.50 2.42 2.22 1.99 1.83 1.58 1.40 1.29 1.20
1.26 0.89 0.72 0.86 0.91 0.84 0.75 0.64 0.51 0.52 0.57 0.52 0.48 0.52 0.43 0.44 0.47 0.48 0.59 0.66 0.63 0.59 0.67 0.83 1.01 1.24 1.34 1.63 2.02 2.19 2.26 2.46 2.61 2.81 3.07 3.05 2.91 2.55 2.12 1.82 1.70 1.59 1.55 1.46
1.05 0.74 0.85 1.08 1.03 0.82 0.75 0.52 0.52 0.53 0.67 0.68 0.52 0.66 0.45 0.40 0.45 0.46 0.58 0.64 0.63 0.60 0.64 0.77 0.90 1.01 1.14 1.29 1.64 1.99 2.19 2.34 2.39 2.50 2.79 2.91 2.76 2.39 2.03 1.81 1.80 1.85 1.80 1.75
1.03 0.75 0.91 1.15 0.95 0.77 0.67 0.47 0.57 0.63 0.71 0.71 0.49 0.59 0.49 0.41 0.48 0.51 0.58 0.65 0.66 0.65 0.69 0.76 0.81 0.85 0.92 1.08 1.42 1.73 1.98 2.21 2.26 2.22 2.35 2.59 2.71 2.59 2.39 2.18 2.04 1.95 1.89 1.79
0.76 0.75 0.95 1.01 0.85 0.82 0.75 0.77 0.88 0.95 1.14 1.10 0.48 0.48 0.45 0.45 0.55 0.55 0.56 0.65 0.71 0.75 0.76 0.77 0.78 0.77 0.83 0.91 1.08 1.38 1.68 2.01 2.19 2.15 2.19 2.28 2.36 2.47 2.40 2.21 2.17 2.06 2.02 1.90
1.02 0.99 0.93 0.99 1.21 1.17 1.16 1.54 1.90 1.84 1.61 0.93 0.28 0.32 0.46 0.43 0.49 0.51 0.55 0.63 0.69 0.69 0.69 0.67 0.65 0.65 0.75 0.86 0.93 1.13 1.31 1.57 1.85 1.98 2.02 2.05 2.14 2.21 2.28 2.28 2.23 2.19 2.03 1.88
1.13 1.19 0.90 0.97 1.29 1.34 1.17 1.38 1.49 1.28 0.84 0.43 0.23 0.36 0.45 0.39 0.41 0.45 0.49 0.58 0.68 0.73 0.72 0.68 0.64 0.67 0.79 0.82 0.89 1.01 1.12 1.25 1.47 1.68 1.75 1.78 1.92 1.99 1.97 2.08 2.08 2.05 1.98 1.87
0.84 0.92 0.72 0.76 0.91 1.03 1.12 1.03 0.81 0.99 0.72 0.50 0.34 0.31 0.34 0.33 0.37 0.41 0.43 0.48 0.60 0.66 0.65 0.66 0.67 0.70 0.76 0.80 0.84 0.93 1.01 1.05 1.16 1.36 1.50 1.60 1.65 1.67 1.61 1.62 1.66 1.70 1.75 1.76
0.76 0.89 0.77 0.80 1.01 1.05 0.98 0.84 0.90 1.18 0.98 0.70 0.37 0.29 0.42 0.41 0.42 0.42 0.43 0.45 0.54 0.61 0.63 0.65 0.68 0.66 0.67 0.72 0.76 0.83 0.87 0.87 0.93 1.04 1.13 1.30 1.41 1.41 1.43 1.43 1.40 1.38 1.38 1.43
0.65 0.88 0.97 0.95 1.06 0.87 0.76 0.86 0.94 0.95 0.78 0.80 0.53 0.39 0.39 0.41 0.43 0.45 0.49 0.50 0.55 0.58 0.65 0.69 0.72 0.70 0.68 0.72 0.75 0.77 0.72 0.75 0.78 0.86 0.92 0.99 1.11 1.19 1.24 1.25 1.17 1.18 1.13 1.11
0.51 0.73 0.92 0.76 0.57 0.52 0.57 0.59 0.73 0.99 0.76 0.62 0.57 0.38 0.28 0.33 0.37 0.43 0.51 0.50 0.51 0.53 0.58 0.63 0.69 0.69 0.68 0.71 0.74 0.77 0.70 0.68 0.70 0.76 0.77 0.81 0.90 1.03 1.07 1.12 1.06 1.00 1.01 0.94
0.55 0.70 0.90 0.79 0.67 0.62 0.60 0.45 0.54 0.79 0.96 0.72 0.65 0.40 0.25 0.29 0.34 0.40 0.47 0.49 0.48 0.49 0.51 0.53 0.56 0.61 0.65 0.66 0.69 0.76 0.74 0.66 0.64 0.66 0.66 0.70 0.77 0.86 0.92 0.94 0.96 0.90 0.92 0.86
0.69 0.64 0.71 0.73 0.58 0.56 0.53 0.43 0.52 0.93 1.12 0.64 0.43 0.35 0.28 0.30 0.33 0.37 0.40 0.43 0.43 0.42 0.40 0.41 0.45 0.50 0.54 0.59 0.63 0.66 0.69 0.69 0.68 0.66 0.62 0.64 0.68 0.80 0.84 0.80 0.83 0.83 0.88 0.90
0.57 0.62 0.47 0.41 0.30 0.33 0.39 0.43 0.52 0.71 0.63 0.59 0.34 0.29 0.30 0.31 0.34 0.36 0.34 0.33 0.31 0.30 0.30 0.32 0.33 0.36 0.41 0.45 0.49 0.54 0.59 0.62 0.66 0.68 0.65 0.64 0.64 0.72 0.77 0.71 0.71 0.74 0.77 0.88
0.36 0.48 0.42 0.37 0.25 0.28 0.38 0.39 0.41 0.46 0.46 0.46 0.35 0.32 0.25 0.27 0.29 0.29 0.25 0.23 0.21 0.20 0.21 0.22 0.22 0.24 0.26 0.30 0.35 0.41 0.46 0.51 0.59 0.62 0.64 0.63 0.61 0.64 0.74 0.71 0.69 0.70 0.74 0.83
0.26 0.36 0.49 0.40 0.23 0.30 0.41 0.34 0.38 0.42 0.42 0.43 0.48 0.39 0.26 0.25 0.25 0.23 0.22 0.19 0.17 0.15 0.15 0.15 0.15 0.16 0.17 0.20 0.25 0.29 0.34 0.39 0.46 0.54 0.59 0.62 0.65 0.67 0.73 0.74 0.74 0.79 0.86 0.92
0.21 0.32 0.54 0.42 0.27 0.34 0.28 0.18 0.24 0.32 0.32 0.30 0.33 0.28 0.23 0.22 0.21 0.21 0.20 0.17 0.14 0.12 0.14 0.16 0.16 0.16 0.16 0.17 0.17 0.19 0.25 0.31 0.36 0.41 0.49 0.53 0.59 0.62 0.65 0.72 0.77 0.82 0.87 0.94
0.14 0.35 0.60 0.47 0.31 0.20 0.18 0.17 0.23 0.33 0.36 0.27 0.25 0.20 0.20 0.18 0.16 0.18 0.16 0.16 0.15 0.13 0.13 0.14 0.14 0.14 0.15 0.14 0.15 0.17 0.22 0.28 0.32 0.39 0.47 0.51 0.60 0.63 0.66 0.74 0.76 0.80 0.86 0.90
0.16 0.29 0.57 0.48 0.39 0.24 0.18 0.12 0.13 0.26 0.42 0.23 0.19 0.18 0.18 0.16 0.22 0.19 0.14 0.13 0.15 0.13 0.12 0.13 0.13 0.14 0.16 0.18 0.20 0.22 0.25 0.30 0.33 0.40 0.48 0.50 0.59 0.68 0.72 0.75 0.74 0.72 0.77 0.83
0.24 0.37 0.47 0.40 0.36 0.16 0.10 0.07 0.10 0.32 0.43 0.20 0.16 0.16 0.15 0.15 0.20 0.16 0.13 0.12 0.12 0.13 0.12 0.13 0.14 0.16 0.21 0.26 0.28 0.29 0.32 0.36 0.38 0.40 0.45 0.45 0.50 0.56 0.59 0.62 0.63 0.64 0.65 0.66
0.13 0.19 0.18 0.19 0.28 0.19 0.10 0.09 0.19 0.24 0.14 0.11 0.10 0.10 0.11 0.14 0.14 0.14 0.14 0.13 0.12 0.16 0.15 0.15 0.16 0.18 0.20 0.27 0.33 0.34 0.33 0.35 0.34 0.35 0.39 0.40 0.43 0.46 0.48 0.50 0.54 0.56 0.55 0.54
0.09 0.13 0.15 0.14 0.16 0.13 0.12 0.13 0.14 0.11 0.09 0.07 0.08 0.08 0.08 0.12 0.14 0.14 0.14 0.12 0.11 0.14 0.15 0.14 0.15 0.16 0.17 0.21 0.27 0.35 0.34 0.33 0.33 0.34 0.37 0.36 0.35 0.37 0.41 0.42 0.44 0.45 0.44 0.43
0.09 0.07 0.11 0.12 0.10 0.10 0.10 0.10 0.10 0.10 0.09 0.07 0.06 0.05 0.06 0.09 0.11 0.13 0.13 0.13 0.12 0.12 0.13 0.14 0.13 0.15 0.18 0.19 0.21 0.25 0.28 0.28 0.30 0.30 0.31 0.34 0.35 0.33 0.32 0.34 0.37 0.40 0.41 0.41
0.10 0.09 0.11 0.15 0.11 0.09 0.09 0.09 0.08 0.07 0.06 0.05 0.04 0.04 0.05 0.08 0.11 0.13 0.14 0.15 0.14 0.14 0.14 0.15 0.15 0.15 0.16 0.16 0.17 0.17 0.18 0.21 0.24 0.27 0.27 0.28 0.29 0.30 0.30 0.29 0.32 0.36 0.38 0.43
0.09 0.10 0.13 0.15 0.09 0.11 0.11 0.08 0.06 0.06 0.05 0.05 0.04 0.04 0.06 0.08 0.09 0.08 0.09 0.12 0.14 0.15 0.14 0.15 0.15 0.14 0.15 0.15 0.16 0.16 0.16 0.18 0.21 0.23 0.24 0.25 0.26 0.27 0.27 0.28 0.27 0.31 0.34 0.40

GEFSCGP_prec_meanprecacc_198.txt.gz
Total_Precipitation_Accumulation
1.77 1.99 1.61 0.94 0.74 0.65 0.53 0.46 0.40 0.39 0.39 0.48 0.47 0.51 0.54 0.52 0.52 0.60 0.71 0.77 0.79 0.77 0.84 1.10 1.38 1.62 1.96 2.38 2.56 2.57 2.53 2.71 2.92 2.74 2.50 2.29 2.06 1.84 1.66 1.55 1.44 1.35 1.26 1.16
1.70 1.44 0.89 0.66 0.70 0.73 0.67 0.61 0.49 0.45 0.42 0.50 0.48 0.50 0.49 0.52 0.53 0.57 0.66 0.71 0.71 0.65 0.74 0.99 1.23 1.49 1.69 2.20 2.48 2.49 2.58 2.72 2.90 2.78 2.64 2.55 2.46 2.25 2.04 1.90 1.65 1.45 1.35 1.25
1.26 0.89 0.72 0.87 0.91 0.85 0.76 0.65 0.52 0.52 0.57 0.53 0.49 0.53 0.44 0.44 0.48 0.49 0.61 0.68 0.65 0.61 0.69 0.85 1.05 1.29 1.41 1.71 2.11 2.27 2.33 2.53 2.68 2.87 3.13 3.11 2.97 2.60 2.16 1.88 1.78 1.65 1.59 1.49
1.05 0.74 0.85 1.08 1.04 0.83 0.75 0.52 0.53 0.54 0.67 0.69 0.53 0.68 0.46 0.41 0.46 0.47 0.58 0.65 0.65 0.63 0.66 0.80 0.95 1.05 1.20 1.37 1.70 2.05 2.25 2.39 2.44 2.54 2.83 2.95 2.81 2.44 2.08 1.86 1.87 1.92 1.85 1.79
1.03 0.75 0.91 1.15 0.95 0.78 0.68 0.48 0.58 0.64 0.72 0.72 0.50 0.60 0.50 0.42 0.49 0.52 0.58 0.66 0.67 0.68 0.73 0.80 0.86 0.88 0.98 1.16 1.47 1.79 2.03 2.26 2.31 2.25 2.37 2.62 2.73 2.61 2.42 2.22 2.10 2.02 1.95 1.84
0.76 0.75 0.95 1.01 0.85 0.83 0.75 0.77 0.89 0.97 1.16 1.11 0.49 0.49 0.46 0.46 0.56 0.55 0.56 0.66 0.72 0.77 0.79 0.80 0.81 0.80 0.87 0.99 1.19 1.48 1.73 2.04 2.22 2.17 2.21 2.30 2.37 2.48 2.42 2.23 2.20 2.11 2.08 1.95
1.02 0.99 0.93 0.99 1.21 1.17 1.17 1.55 1.91 1.86 1.62 0.94 0.29 0.33 0.47 0.43 0.49 0.52 0.55 0.64 0.69 0.70 0.70 0.68 0.67 0.68 0.78 0.90 1.00 1.18 1.33 1.58 1.86 1.99 2.03 2.05 2.15 2.21 2.28 2.29 2.25 2.21 2.08 1.93
1.13 1.19 0.90 0.97 1.29 1.34 1.17 1.39 1.50 1.29 0.85 0.44 0.24 0.37 0.46 0.39 0.41 0.45 0.50 0.58 0.68 0.73 0.72 0.68 0.65 0.69 0.80 0.83 0.90 1.02 1.14 1.26 1.48 1.68 1.75 1.79 1.92 1.99 1.97 2.08 2.09 2.06 2.00 1.91
0.85 0.92 0.72 0.76 0.91 1.04 1.13 1.03 0.81 1.00 0.72 0.50 0.35 0.31 0.35 0.33 0.37 0.42 0.43 0.48 0.60 0.66 0.65 0.67 0.68 0.71 0.76 0.80 0.84 0.93 1.02 1.05 1.16 1.36 1.50 1.60 1.66 1.67 1.61 1.63 1.66 1.71 1.76 1.78
0.76 0.89 0.77 0.80 1.01 1.05 0.99 0.85 0.91 1.20 1.00 0.72 0.38 0.29 0.43 0.41 0.42 0.42 0.43 0.45 0.54 0.61 0.64 0.67 0.69 0.67 0.67 0.72 0.76 0.84 0.88 0.88 0.93 1.04 1.14 1.31 1.41 1.41 1.43 1.44 1.40 1.38 1.38 1.43
0.65 0.88 0.97 0.95 1.06 0.87 0.76 0.86 0.95 0.97 0.79 0.82 0.55 0.40 0.40 0.41 0.43 0.45 0.49 0.50 0.55 0.59 0.66 0.70 0.72 0.70 0.68 0.72 0.75 0.77 0.72 0.75 0.78 0.86 0.92 0.99 1.12 1.19 1.24 1.25 1.17 1.18 1.14 1.11
0.51 0.74 0.92 0.76 0.57 0.52 0.58 0.60 0.74 1.00 0.77 0.63 0.59 0.39 0.28 0.33 0.37 0.43 0.51 0.51 0.51 0.54 0.58 0.63 0.69 0.69 0.68 0.71 0.74 0.77 0.70 0.68 0.71 0.76 0.77 0.81 0.91 1.03 1.08 1.12 1.06 1.00 1.01 0.95
0.55 0.71 0.90 0.79 0.67 0.62 0.60 0.46 0.55 0.80 0.97 0.72 0.66 0.41 0.25 0.29 0.34 0.40 0.48 0.49 0.49 0.49 0.51 0.53 0.56 0.61 0.65 0.67 0.69 0.76 0.74 0.66 0.64 0.66 0.66 0.71 0.78 0.87 0.93 0.94 0.97 0.90 0.93 0.87
0.69 0.65 0.71 0.73 0.59 0.56 0.53 0.43 0.52 0.94 1.13 0.65 0.43 0.35 0.28 0.30 0.33 0.37 0.40 0.43 0.43 0.42 0.40 0.41 0.45 0.50 0.54 0.59 0.63 0.66 0.69 0.69 0.69 0.66 0.62 0.65 0.69 0.81 0.85 0.81 0.84 0.84 0.89 0.91
0.57 0.62 0.47 0.41 0.30 0.33 0.39 0.43 0.52 0.71 0.63 0.60 0.34 0.29 0.31 0.31 0.34 0.36 0.34 0.33 0.31 0.30 0.30 0.32 0.33 0.36 0.41 0.45 0.49 0.54 0.59 0.62 0.66 0.68 0.65 0.64 0.64 0.72 0.78 0.72 0.73 0.75 0.78 0.89
0.36 0.48 0.42 0.37 0.25 0.28 0.38 0.39 0.41 0.46 0.47 0.47 0.35 0.32 0.26 0.27 0.29 0.29 0.25 0.23 0.21 0.20 0.21 0.22 0.22 0.24 0.26 0.30 0.35 0.41 0.46 0.51 0.59 0.62 0.64 0.63 0.61 0.65 0.74 0.72 0.70 0.71 0.76 0.84
0.27 0.36 0.50 0.40 0.23 0.30 0.41 0.34 0.38 0.42 0.42 0.43 0.48 0.39 0.26 0.25 0.25 0.23 0.22 0.19 0.17 0.15 0.15 0.15 0.15 0.16 0.17 0.20 0.25 0.29 0.34 0.39 0.46 0.54 0.59 0.62 0.65 0.68 0.73 0.75 0.75 0.80 0.87 0.93
0.22 0.33 0.55 0.43 0.28 0.35 0.28 0.18 0.24 0.33 0.33 0.30 0.33 0.28 0.24 0.22 0.21 0.21 0.20 0.17 0.14 0.13 0.14 0.16 0.16 0.16 0.16 0.17 0.17 0.19 0.25 0.31 0.36 0.41 0.49 0.53 0.59 0.63 0.66 0.73 0.78 0.83 0.89 0.95
0.14 0.36 0.62 0.49 0.31 0.21 0.18 0.17 0.23 0.33 0.36 0.27 0.25 0.20 0.20 0.18 0.16 0.18 0.16 0.16 0.15 0.13 0.13 0.14 0.14 0.14 0.15 0.14 0.15 0.17 0.22 0.28 0.32 0.40 0.47 0.52 0.60 0.63 0.67 0.74 0.77 0.81 0.87 0.91
0.16 0.30 0.60 0.50 0.41 0.25 0.18 0.12 0.13 0.26 0.43 0.24 0.19 0.18 0.18 0.16 0.22 0.19 0.14 0.13 0.15 0.13 0.12 0.13 0.13 0.14 0.16 0.18 0.20 0.22 0.26 0.30 0.33 0.40 0.48 0.51 0.59 0.69 0.72 0.75 0.74 0.73 0.78 0.84
0.25 0.38 0.49 0.41 0.37 0.17 0.11 0.07 0.10 0.33 0.44 0.20 0.16 0.16 0.15 0.15 0.20 0.16 0.13 0.12 0.12 0.13 0.12 0.13 0.14 0.16 0.21 0.26 0.28 0.29 0.32 0.37 0.38 0.40 0.45 0.45 0.50 0.56 0.60 0.62 0.64 0.65 0.65 0.67
0.14 0.20 0.19 0.20 0.30 0.20 0.11 0.10 0.19 0.24 0.14 0.11 0.10 0.10 0.11 0.14 0.14 0.15 0.14 0.13 0.12 0.16 0.15 0.15 0.17 0.18 0.20 0.27 0.33 0.34 0.33 0.35 0.35 0.35 0.39 0.40 0.43 0.46 0.48 0.51 0.54 0.56 0.55 0.55
0.10 0.14 0.16 0.15 0.17 0.14 0.12 0.14 0.15 0.12 0.09 0.08 0.08 0.09 0.09 0.13 0.14 0.14 0.14 0.12 0.11 0.14 0.15 0.14 0.15 0.16 0.17 0.21 0.27 0.35 0.35 0.33 0.33 0.34 0.37 0.37 0.36 0.37 0.41 0.42 0.44 0.45 0.44 0.44
0.10 0.08 0.11 0.13 0.11 0.10 0.11 0.11 0.11 0.11 0.10 0.08 0.07 0.06 0.06 0.09 0.12 0.13 0.14 0.13 0.12 0.12 0.14 0.14 0.14 0.15 0.18 0.19 0.21 0.25 0.28 0.29 0.30 0.30 0.32 0.34 0.35 0.33 0.32 0.34 0.37 0.40 0.41 0.41
0.10 0.10 0.12 0.15 0.11 0.10 0.10 0.10 0.09 0.08 0.07 0.06 0.05 0.05 0.06 0.09 0.11 0.13 0.15 0.15 0.14 0.14 0.14 0.15 0.15 0.15 0.17 0.16 0.17 0.17 0.18 0.21 0.24 0.27 0.27 0.28 0.29 0.30 0.30 0.29 0.32 0.36 0.38 0.44
0.10 0.11 0.16 0.18 0.11 0.12 0.12 0.09 0.07 0.06 0.06 0.05 0.05 0.05 0.06 0.08 0.09 0.08 0.09 0.12 0.15 0.15 0.14 0.15 0.15 0.14 0.15 0.15 0.16 0.16 0.16 0.18 0.21 0.23 0.24 0.25 0.26 0.27 0.27 0.28 0.28 0.31 0.34 0.40

GEFSCGP_prec_meanprecacc_204.txt.gz
Total_Precipitation_Accumulation
1.77 1.99 1.61 0.94 0.75 0.67 0.55 0.49 0.41 0.40 0.40 0.48 0.47 0.51 0.54 0.53 0.53 0.61 0.73 0.79 0.82 0.82 0.89 1.16 1.48 1.70 2.03 2.44 2.62 2.63 2.60 2.80 3.04 2.93 2.68 2.43 2.16 1.90 1.70 1.57 1.46 1.37 1.28 1.20
1.70 1.44 0.89 0.66 0.70 0.73 0.68 0.62 0.49 0.46 0.43 0.50 0.48 0.50 0.49 0.53 0.54 0.59 0.67 0.73 0.73 0.68 0.78 1.04 1.30 1.56 1.75 2.25 2.56 2.57 2.66 2.83 3.03 2.94 2.79 2.68 2.55 2.31 2.08 1.92 1.66 1.46 1.36 1.28
1.26 0.89 0.72 0.87 0.91 0.85 0.76 0.65 0.52 0.52 0.57 0.53 0.49 0.53 0.44 0.45 0.49 0.50 0.62 0.69 0.67 0.63 0.71 0.89 1.09 1.33 1.47 1.76 2.17 2.35 2.41 2.64 2.80 3.01 3.28 3.23 3.06 2.66 2.21 1.91 1.79 1.65 1.60 1.50
1.06 0.74 0.85 1.08 1.04 0.83 0.76 0.52 0.53 0.54 0.67 0.69 0.53 0.69 0.47 0.41 0.46 0.48 0.59 0.67 0.67 0.64 0.68 0.83 0.98 1.08 1.25 1.41 1.73 2.11 2.33 2.47 2.52 2.64 2.96 3.08 2.91 2.52 2.13 1.89 1.88 1.92 1.85 1.80
1.03 0.75 0.91 1.15 0.95 0.78 0.68 0.49 0.58 0.64 0.72 0.72 0.50 0.60 0.51 0.42 0.49 0.52 0.59 0.67 0.69 0.70 0.75 0.83 0.89 0.90 1.00 1.20 1.51 1.83 2.09 2.32 2.36 2.31 2.45 2.71 2.82 2.69 2.48 2.26 2.12 2.03 1.95 1.85
0.76 0.75 0.95 1.01 0.85 0.83 0.75 0.78 0.90 0.98 1.17 1.12 0.49 0.49 0.47 0.46 0.56 0.56 0.56 0.66 0.73 0.79 0.81 0.82 0.84 0.83 0.89 1.02 1.25 1.51 1.76 2.09 2.26 2.21 2.26 2.36 2.44 2.54 2.47 2.27 2.22 2.13 2.09 1.96
1.02 0.99 0.93 0.99 1.21 1.17 1.17 1.56 1.92 1.87 1.65 0.95 0.29 0.34 0.48 0.43 0.49 0.52 0.56 0.64 0.69 0.71 0.71 0.70 0.69 0.70 0.80 0.93 1.04 1.24 1.37 1.63 1.91 2.02 2.06 2.09 2.19 2.25 2.32 2.32 2.27 2.23 2.09 1.94
1.13 1.19 0.90 0.97 1.29 1.34 1.18 1.39 1.51 1.30 0.86 0.45 0.24 0.38 0.47 0.39 0.41 0.45 0.50 0.58 0.68 0.73 0.73 0.70 0.66 0.71 0.82 0.85 0.92 1.06 1.18 1.30 1.53 1.72 1.78 1.81 1.95 2.02 1.99 2.09 2.10 2.07 2.01 1.92
0.85 0.92 0.72 0.76 0.91 1.04 1.13 1.04 0.82 1.01 0.73 0.51 0.36 0.32 0.35 0.34 0.37 0.42 0.44 0.49 0.60 0.66 0.65 0.67 0.69 0.74 0.79 0.82 0.86 0.94 1.04 1.08 1.19 1.40 1.52 1.62 1.68 1.69 1.63 1.63 1.66 1.71 1.77 1.79
0.76 0.89 0.77 0.80 1.01 1.05 0.99 0.86 0.92 1.21 1.01 0.73 0.39 0.30 0.44 0.42 0.42 0.42 0.43 0.45 0.54 0.61 0.65 0.67 0.69 0.68 0.69 0.74 0.77 0.84 0.88 0.89 0.95 1.07 1.16 1.32 1.43 1.42 1.44 1.44 1.40 1.39 1.38 1.43
0.65 0.88 0.97 0.95 1.06 0.87 0.77 0.87 0.96 0.97 0.80 0.83 0.56 0.40 0.40 0.42 0.43 0.45 0.50 0.50 0.55 0.59 0.66 0.70 0.73 0.70 0.68 0.73 0.76 0.77 0.73 0.75 0.79 0.87 0.93 1.00 1.13 1.20 1.24 1.26 1.18 1.18 1.14 1.11
0.51 0.74 0.92 0.76 0.57 0.52 0.58 0.60 0.75 1.01 0.77 0.64 0.59 0.40 0.28 0.33 0.37 0.43 0.51 0.51 0.51 0.54 0.58 0.63 0.69 0.69 0.69 0.72 0.75 0.78 0.71 0.69 0.71 0.76 0.78 0.82 0.91 1.03 1.08 1.12 1.06 1.00 1.01 0.95
0.55 0.71 0.91 0.79 0.67 0.62 0.60 0.46 0.55 0.81 0.98 0.73 0.66 0.42 0.25 0.29 0.34 0.40 0.48 0.49 0.49 0.49 0.52 0.54 0.56 0.61 0.65 0.67 0.70 0.76 0.74 0.66 0.64 0.66 0.66 0.71 0.78 0.87 0.93 0.94 0.97 0.91 0.93 0.87
0.69 0.65 0.72 0.73 0.59 0.56 0.53 0.43 0.52 0.94 1.14 0.65 0.43 0.35 0.29 0.31 0.34 0.37 0.41 0.43 0.43 0.42 0.40 0.41 0.45 0.50 0.54 0.59 0.64 0.67 0.70 0.69 0.69 0.66 0.62 0.65 0.69 0.81 0.85 0.81 0.85 0.84 0.89 0.91
0.58 0.63 0.47 0.41 0.30 0.33 0.39 0.43 0.52 0.71 0.63 0.60 0.35 0.30 0.31 0.31 0.34 0.36 0.34 0.33 0.31 0.30 0.30 0.32 0.33 0.36 0.41 0.45 0.49 0.55 0.59 0.62 0.67 0.68 0.65 0.64 0.64 0.73 0.78 0.72 0.73 0.75 0.78 0.89
0.37 0.49 0.43 0.38 0.25 0.28 0.38 0.39 0.41 0.46 0.47 0.47 0.35 0.32 0.26 0.27 0.29 0.29 0.25 0.23 0.21 0.20 0.21 0.22 0.22 0.24 0.26 0.30 0.36 0.41 0.46 0.52 0.60 0.62 0.64 0.63 0.62 0.65 0.74 0.72 0.70 0.72 0.76 0.85
0.28 0.38 0.51 0.41 0.24 0.30 0.41 0.34 0.38 0.42 0.42 0.43 0.48 0.39 0.26 0.25 0.25 0.23 0.22 0.19 0.17 0.15 0.15 0.15 0.15 0.16 0.17 0.20 0.25 0.29 0.34 0.39 0.46 0.54 0.59 0.62 0.65 0.68 0.74 0.75 0.75 0.80 0.88 0.94
0.22 0.35 0.58 0.44 0.28 0.35 0.29 0.18 0.24 0.33 0.33 0.30 0.33 0.28 0.24 0.22 0.21 0.21 0.20 0.17 0.14 0.13 0.14 0.16 0.16 0.16 0.16 0.17 0.17 0.19 0.25 0.31 0.36 0.41 0.49 0.53 0.59 0.63 0.66 0.73 0.78 0.84 0.89 0.96
0.15 0.37 0.65 0.51 0.33 0.21 0.18 0.17 0.23 0.33 0.37 0.27 0.25 0.20 0.20 0.18 0.16 0.18 0.16 0.16 0.15 0.13 0.13 0.14 0.14 0.14 0.15 0.15 0.15 0.17 0.22 0.28 0.33 0.40 0.47 0.52 0.60 0.63 0.67 0.74 0.77 0.81 0.88 0.92
0.16 0.31 0.64 0.54 0.43 0.26 0.19 0.12 0.13 0.26 0.44 0.24 0.19 0.18 0.18 0.17 0.22 0.19 0.14 0.14 0.15 0.13 0.12 0.13 0.14 0.15 0.16 0.18 0.20 0.22 0.26 0.30 0.34 0.40 0.48 0.51 0.59 0.69 0.73 0.76 0.75 0.73 0.78 0.85
0.26 0.40 0.52 0.44 0.40 0.18 0.11 0.07 0.10 0.34 0.45 0.21 0.16 0.16 0.16 0.16 0.20 0.17 0.13 0.12 0.12 0.13 0.13 0.13 0.14 0.16 0.21 0.26 0.28 0.29 0.32 0.37 0.38 0.40 0.45 0.45 0.50 0.56 0.60 0.63 0.64 0.65 0.66 0.68
0.15 0.21 0.20 0.22 0.33 0.23 0.12 0.10 0.20 0.26 0.16 0.12 0.11 0.11 0.12 0.15 0.15 0.15 0.14 0.13 0.13 0.16 0.15 0.15 0.17 0.18 0.20 0.27 0.34 0.34 0.33 0.35 0.35 0.35 0.39 0.41 0.43 0.47 0.49 0.51 0.55 0.57 0.56 0.56
0.11 0.15 0.18 0.17 0.19 0.15 0.13 0.14 0.16 0.13 0.10 0.09 0.09 0.09 0.09 0.13 0.14 0.15 0.15 0.12 0.11 0.14 0.15 0.14 0.15 0.16 0.17 0.21 0.28 0.35 0.35 0.34 0.33 0.35 0.37 0.37 0.36 0.38 0.42 0.43 0.45 0.46 0.45 0.44
0.11 0.08 0.12 0.14 0.11 0.10 0.11 0.12 0.11 0.11 0.11 0.08 0.07 0.06 0.06 0.10 0.12 0.13 0.14 0.13 0.12 0.12 0.14 0.14 0.14 0.15 0.18 0.19 0.21 0.25 0.28 0.29 0.30 0.31 0.32 0.35 0.36 0.34 0.33 0.34 0.37 0.40 0.41 0.42
0.11 0.11 0.13 0.16 0.12 0.11 0.11 0.10 0.09 0.08 0.07 0.06 0.05 0.05 0.06 0.09 0.11 0.13 0.15 0.15 0.14 0.14 0.14 0.15 0.15 0.15 0.17 0.16 0.18 0.18 0.19 0.21 0.25 0.28 0.28 0.28 0.30 0.31 0.30 0.29 0.32 0.37 0.38 0.44
0.11 0.12 0.17 0.19 0.12 0.13 0.12 0.09 0.07 0.07 0.06 0.05 0.05 0.05 0.06 0.08 0.09 0.08 0.09 0.12 0.15 0.15 0.14 0.15 0.15 0.14 0.15 0.16 0.16 0.17 0.17 0.19 0.21 0.24 0.25 0.26 0.27 0.27 0.28 0.28 0.28 0.32 0.35 0.40

GEFSCGP_prec_meanprecacc_210.txt.gz
Total_Precipitation_Accumulation
1.77 1.99 1.61 0.94 0.75 0.67 0.55 0.49 0.41 0.41 0.40 0.48 0.47 0.52 0.55 0.54 0.54 0.62 0.74 0.80 0.83 0.84 0.91 1.19 1.57 1.80 2.12 2.51 2.69 2.74 2.70 2.88 3.10 2.97 2.72 2.50 2.26 2.05 1.84 1.69 1.54 1.42 1.31 1.21
1.70 1.44 0.89 0.66 0.70 0.73 0.68 0.62 0.49 0.46 0.43 0.50 0.48 0.51 0.50 0.53 0.55 0.59 0.67 0.73 0.73 0.69 0.80 1.06 1.37 1.67 1.85 2.33 2.63 2.67 2.77 2.93 3.10 2.98 2.83 2.73 2.63 2.42 2.20 2.03 1.75 1.53 1.40 1.29
1.26 0.89 0.72 0.87 0.91 0.85 0.76 0.65 0.52 0.52 0.57 0.53 0.49 0.54 0.44 0.45 0.49 0.51 0.63 0.70 0.67 0.64 0.72 0.91 1.14 1.43 1.56 1.86 2.25 2.44 2.52 2.74 2.88 3.06 3.32 3.28 3.12 2.74 2.31 2.02 1.88 1.71 1.64 1.52
1.06 0.74 0.85 1.08 1.04 0.83 0.76 0.52 0.53 0.54 0.68 0.69 0.53 0.69 0.47 0.41 0.46 0.48 0.59 0.67 0.68 0.65 0.69 0.84 1.02 1.15 1.32 1.50 1.82 2.19 2.42 2.57 2.61 2.71 3.00 3.13 2.96 2.58 2.21 2.00 1.98 2.00 1.89 1.82
1.03 0.75 0.91 1.15 0.95 0.78 0.68 0.49 0.58 0.64 0.72 0.72 0.50 0.60 0.51 0.42 0.49 0.52 0.59 0.67 0.69 0.70 0.76 0.85 0.92 0.95 1.06 1.27 1.59 1.91 2.17 2.41 2.45 2.39 2.52 2.78 2.88 2.76 2.55 2.35 2.22 2.11 2.01 1.87
0.76 0.75 0.95 1.01 0.85 0.83 0.75 0.78 0.90 0.98 1.18 1.12 0.49 0.50 0.48 0.47 0.56 0.56 0.56 0.66 0.73 0.79 0.83 0.84 0.87 0.88 0.94 1.08 1.30 1.58 1.83 2.16 2.34 2.29 2.33 2.43 2.51 2.61 2.55 2.36 2.30 2.21 2.15 2.00
1.02 0.99 0.93 0.99 1.21 1.17 1.17 1.56 1.94 1.88 1.66 0.96 0.30 0.34 0.49 0.44 0.49 0.52 0.56 0.64 0.69 0.71 0.73 0.71 0.71 0.75 0.86 0.98 1.09 1.29 1.41 1.68 1.98 2.10 2.13 2.16 2.26 2.32 2.39 2.40 2.34 2.30 2.15 1.99
1.13 1.19 0.90 0.97 1.29 1.34 1.18 1.39 1.52 1.31 0.86 0.45 0.25 0.38 0.47 0.39 0.41 0.46 0.50 0.58 0.68 0.74 0.73 0.71 0.68 0.74 0.87 0.92 0.99 1.11 1.22 1.34 1.59 1.79 1.84 1.86 2.00 2.08 2.06 2.16 2.16 2.14 2.07 1.97
0.85 0.92 0.72 0.76 0.91 1.04 1.13 1.04 0.82 1.02 0.73 0.51 0.36 0.32 0.36 0.34 0.38 0.42 0.44 0.49 0.61 0.67 0.65 0.68 0.71 0.77 0.83 0.87 0.91 0.99 1.07 1.10 1.23 1.45 1.58 1.67 1.71 1.73 1.68 1.69 1.72 1.77 1.82 1.84
0.76 0.89 0.77 0.80 1.01 1.05 0.99 0.86 0.92 1.22 1.02 0.73 0.39 0.30 0.44 0.43 0.43 0.43 0.43 0.46 0.54 0.62 0.65 0.67 0.70 0.69 0.71 0.77 0.81 0.88 0.91 0.91 0.97 1.10 1.20 1.37 1.46 1.45 1.49 1.48 1.44 1.42 1.42 1.47
0.65 0.88 0.97 0.95 1.06 0.87 0.77 0.88 0.97 0.98 0.80 0.83 0.56 0.41 0.41 0.42 0.44 0.45 0.50 0.50 0.56 0.59 0.67 0.71 0.73 0.71 0.69 0.74 0.78 0.80 0.76 0.78 0.82 0.90 0.96 1.03 1.15 1.21 1.26 1.28 1.20 1.20 1.16 1.14
0.51 0.74 0.93 0.76 0.57 0.52 0.58 0.60 0.75 1.02 0.78 0.64 0.60 0.40 0.28 0.33 0.37 0.43 0.51 0.51 0.52 0.55 0.59 0.63 0.70 0.69 0.69 0.72 0.76 0.79 0.73 0.71 0.74 0.79 0.80 0.84 0.92 1.05 1.09 1.13 1.07 1.02 1.02 0.96
0.56 0.72 0.91 0.79 0.67 0.62 0.60 0.46 0.56 0.81 0.99 0.74 0.67 0.42 0.26 0.29 0.34 0.40 0.48 0.49 0.49 0.49 0.52 0.54 0.56 0.61 0.65 0.68 0.70 0.77 0.75 0.68 0.67 0.68 0.68 0.72 0.79 0.88 0.93 0.95 0.97 0.91 0.94 0.88
0.70 0.66 0.73 0.74 0.59 0.57 0.53 0.43 0.53 0.95 1.16 0.66 0.43 0.36 0.29 0.31 0.34 0.37 0.41 0.43 0.43 0.43 0.40 0.41 0.45 0.50 0.54 0.59 0.64 0.68 0.71 0.70 0.70 0.68 0.63 0.65 0.70 0.81 0.86 0.82 0.85 0.84 0.89 0.91
0.59 0.65 0.48 0.41 0.30 0.34 0.40 0.43 0.52 0.72 0.64 0.61 0.35 0.30 0.31 0.31 0.34 0.36 0.34 0.33 0.31 0.30 0.30 0.32 0.33 0.36 0.41 0.45 0.50 0.55 0.60 0.63 0.68 0.69 0.66 0.65 0.64 0.73 0.79 0.72 0.73 0.75 0.78 0.89
0.38 0.52 0.44 0.38 0.25 0.28 0.38 0.39 0.41 0.46 0.47 0.47 0.35 0.32 0.26 0.27 0.29 0.29 0.25 0.23 0.21 0.20 0.21 0.22 0.22 0.24 0.26 0.30 0.36 0.41 0.47 0.53 0.61 0.63 0.65 0.64 0.62 0.65 0.75 0.73 0.71 0.72 0.76 0.85
0.29 0.39 0.53 0.42 0.24 0.31 0.42 0.34 0.38 0.42 0.42 0.43 0.48 0.39 0.26 0.25 0.25 0.23 0.22 0.19 0.17 0.15 0.15 0.15 0.15 0.16 0.17 0.20 0.25 0.30 0.35 0.40 0.47 0.55 0.59 0.62 0.65 0.68 0.74 0.76 0.76 0.81 0.88 0.94
0.24 0.36 0.60 0.46 0.29 0.36 0.29 0.18 0.24 0.33 0.33 0.30 0.33 0.28 0.24 0.22 0.21 0.21 0.20 0.17 0.14 0.13 0.14 0.16 0.16 0.16 0.16 0.17 0.17 0.20 0.25 0.33 0.37 0.42 0.50 0.54 0.59 0.63 0.66 0.73 0.79 0.84 0.90 0.96
0.15 0.39 0.68 0.54 0.34 0.22 0.18 0.17 0.23 0.33 0.37 0.27 0.25 0.20 0.20 0.18 0.16 0.18 0.17 0.16 0.15 0.13 0.13 0.14 0.14 0.14 0.15 0.15 0.15 0.17 0.22 0.29 0.34 0.41 0.47 0.52 0.60 0.64 0.67 0.75 0.78 0.82 0.89 0.92
0.17 0.33 0.67 0.57 0.46 0.27 0.19 0.12 0.13 0.26 0.44 0.24 0.19 0.18 0.18 0.17 0.23 0.20 0.15 0.14 0.15 0.13 0.12 0.13 0.14 0.15 0.17 0.18 0.20 0.22 0.26 0.31 0.35 0.41 0.49 0.51 0.59 0.69 0.73 0.76 0.75 0.74 0.79 0.86
0.27 0.42 0.55 0.47 0.42 0.19 0.12 0.07 0.11 0.34 0.46 0.21 0.17 0.16 0.16 0.17 0.22 0.19 0.15 0.13 0.13 0.14 0.13 0.13 0.15 0.17 0.21 0.26 0.28 0.29 0.33 0.37 0.39 0.41 0.46 0.46 0.51 0.57 0.61 0.63 0.64 0.65 0.66 0.68
0.17 0.24 0.23 0.25 0.36 0.24 0.12 0.10 0.21 0.26 0.16 0.12 0.11 0.11 0.12 0.15 0.16 0.16 0.15 0.13 0.13 0.17 0.16 0.16 0.18 0.19 0.21 0.27 0.34 0.35 0.34 0.35 0.36 0.36 0.40 0.41 0.44 0.48 0.50 0.52 0.55 0.57 0.56 0.56
0.14 0.19 0.22 0.21 0.23 0.18 0.14 0.15 0.16 0.13 0.10 0.09 0.09 0.10 0.10 0.13 0.15 0.15 0.15 0.13 0.11 0.15 0.16 0.15 0.16 0.17 0.18 0.22 0.28 0.35 0.35 0.34 0.33 0.35 0.38 0.38 0.37 0.38 0.42 0.43 0.46 0.47 0.45 0.45
0.13 0.10 0.15 0.18 0.14 0.12 0.12 0.13 0.12 0.12 0.12 0.09 0.08 0.07 0.07 0.10 0.13 0.14 0.14 0.13 0.12 0.12 0.14 0.14 0.14 0.16 0.18 0.19 0.21 0.25 0.28 0.29 0.30 0.31 0.32 0.35 0.36 0.34 0.33 0.35 0.38 0.41 0.43 0.43
0.12 0.12 0.14 0.18 0.14 0.13 0.13 0.12 0.10 0.09 0.08 0.06 0.05 0.05 0.07 0.10 0.12 0.13 0.15 0.16 0.14 0.14 0.14 0.15 0.15 0.16 0.17 0.17 0.18 0.18 0.19 0.21 0.25 0.28 0.28 0.29 0.30 0.32 0.31 0.30 0.33 0.38 0.39 0.45
0.12 0.14 0.19 0.21 0.14 0.15 0.14 0.10 0.08 0.07 0.06 0.06 0.05 0.05 0.06 0.08 0.09 0.09 0.09 0.12 0.15 0.15 0.14 0.15 0.15 0.15 0.16 0.16 0.17 0.17 0.17 0.19 0.22 0.24 0.26 0.27 0.27 0.28 0.29 0.29 0.29 0.33 0.36 0.41